<?xml version="1.0" encoding="UTF-8" standalone="no" ?>
<gpx xmlns="http://www.topografix.com/GPX/1/1" xmlns:xsi="http://www.w3.org/2001/XMLSchema-instance" xsi:schemaLocation="http://www.topografix.com/GPX/1/1 http://www.topografix.com/GPX/1/1/gpx.xsd" version="1.1" creator="VisuGPX - https://www.visugpx.com">
  <metadata>
    <name>VTT Tour / Mont Beauvoir</name>
    <desc><![CDATA[Balade facile à VTT, départ d\'Entre-Deux-Guiers.]]></desc>
  </metadata>
  <trk>
    <name><![CDATA[VTT Tour / Mont Beauvoir_1]]></name>
    <trkseg>
      <trkpt lat="45.44366" lon="5.78272">
        <ele>381</ele>
        <time>2011-02-19T08:07:35Z</time>
      </trkpt>
      <trkpt lat="45.44354" lon="5.78262">
        <ele>381</ele>
        <time>2011-02-19T08:07:39Z</time>
      </trkpt>
      <trkpt lat="45.44342" lon="5.78259">
        <ele>381</ele>
        <time>2011-02-19T08:07:46Z</time>
      </trkpt>
      <trkpt lat="45.44335" lon="5.78263">
        <ele>382</ele>
        <time>2011-02-19T08:07:59Z</time>
      </trkpt>
      <trkpt lat="45.44327" lon="5.78277">
        <ele>385</ele>
        <time>2011-02-19T08:08:16Z</time>
      </trkpt>
      <trkpt lat="45.44317" lon="5.78286">
        <ele>389</ele>
        <time>2011-02-19T08:08:29Z</time>
      </trkpt>
      <trkpt lat="45.44309" lon="5.78295">
        <ele>391</ele>
        <time>2011-02-19T08:08:41Z</time>
      </trkpt>
      <trkpt lat="45.443" lon="5.78303">
        <ele>395</ele>
        <time>2011-02-19T08:08:54Z</time>
      </trkpt>
      <trkpt lat="45.44293" lon="5.78306">
        <ele>397</ele>
        <time>2011-02-19T08:09:15Z</time>
      </trkpt>
      <trkpt lat="45.44283" lon="5.78306">
        <ele>401</ele>
        <time>2011-02-19T08:09:27Z</time>
      </trkpt>
      <trkpt lat="45.44276" lon="5.78305">
        <ele>403</ele>
        <time>2011-02-19T08:09:51Z</time>
      </trkpt>
      <trkpt lat="45.44266" lon="5.78311">
        <ele>405</ele>
        <time>2011-02-19T08:10:08Z</time>
      </trkpt>
      <trkpt lat="45.44265" lon="5.78311">
        <ele>405</ele>
        <time>2011-02-19T08:10:11Z</time>
      </trkpt>
      <trkpt lat="45.44256" lon="5.78324">
        <ele>409</ele>
        <time>2011-02-19T08:10:24Z</time>
      </trkpt>
      <trkpt lat="45.44246" lon="5.7833">
        <ele>412</ele>
        <time>2011-02-19T08:10:35Z</time>
      </trkpt>
      <trkpt lat="45.44244" lon="5.78335">
        <ele>413</ele>
        <time>2011-02-19T08:10:40Z</time>
      </trkpt>
      <trkpt lat="45.44236" lon="5.7834">
        <ele>416</ele>
        <time>2011-02-19T08:10:51Z</time>
      </trkpt>
      <trkpt lat="45.4423" lon="5.78345">
        <ele>420</ele>
        <time>2011-02-19T08:11:03Z</time>
      </trkpt>
      <trkpt lat="45.44221" lon="5.78351">
        <ele>423</ele>
        <time>2011-02-19T08:11:17Z</time>
      </trkpt>
      <trkpt lat="45.44215" lon="5.78359">
        <ele>426</ele>
        <time>2011-02-19T08:11:30Z</time>
      </trkpt>
      <trkpt lat="45.44204" lon="5.78358">
        <ele>428</ele>
        <time>2011-02-19T08:11:45Z</time>
      </trkpt>
      <trkpt lat="45.442" lon="5.78364">
        <ele>431</ele>
        <time>2011-02-19T08:12:00Z</time>
      </trkpt>
      <trkpt lat="45.44193" lon="5.78365">
        <ele>435</ele>
        <time>2011-02-19T08:12:11Z</time>
      </trkpt>
      <trkpt lat="45.44187" lon="5.78369">
        <ele>438</ele>
        <time>2011-02-19T08:12:27Z</time>
      </trkpt>
      <trkpt lat="45.44189" lon="5.78376">
        <ele>440</ele>
        <time>2011-02-19T08:12:39Z</time>
      </trkpt>
      <trkpt lat="45.44189" lon="5.78381">
        <ele>442</ele>
        <time>2011-02-19T08:12:55Z</time>
      </trkpt>
      <trkpt lat="45.44182" lon="5.78387">
        <ele>445</ele>
        <time>2011-02-19T08:13:06Z</time>
      </trkpt>
      <trkpt lat="45.4417" lon="5.7839">
        <ele>449</ele>
        <time>2011-02-19T08:13:21Z</time>
      </trkpt>
      <trkpt lat="45.44165" lon="5.78393">
        <ele>452</ele>
        <time>2011-02-19T08:13:39Z</time>
      </trkpt>
      <trkpt lat="45.44167" lon="5.78397">
        <ele>455</ele>
        <time>2011-02-19T08:13:55Z</time>
      </trkpt>
      <trkpt lat="45.44164" lon="5.78405">
        <ele>458</ele>
        <time>2011-02-19T08:14:09Z</time>
      </trkpt>
      <trkpt lat="45.44149" lon="5.78404">
        <ele>461</ele>
        <time>2011-02-19T08:14:26Z</time>
      </trkpt>
      <trkpt lat="45.44138" lon="5.78406">
        <ele>464</ele>
        <time>2011-02-19T08:14:43Z</time>
      </trkpt>
      <trkpt lat="45.44133" lon="5.78409">
        <ele>466</ele>
        <time>2011-02-19T08:14:58Z</time>
      </trkpt>
      <trkpt lat="45.44131" lon="5.78411">
        <ele>469</ele>
        <time>2011-02-19T08:15:48Z</time>
      </trkpt>
      <trkpt lat="45.44128" lon="5.78411">
        <ele>471</ele>
        <time>2011-02-19T08:16:10Z</time>
      </trkpt>
      <trkpt lat="45.44128" lon="5.78413">
        <ele>472</ele>
        <time>2011-02-19T08:16:23Z</time>
      </trkpt>
      <trkpt lat="45.44124" lon="5.78418">
        <ele>475</ele>
        <time>2011-02-19T08:16:52Z</time>
      </trkpt>
      <trkpt lat="45.44129" lon="5.78419">
        <ele>477</ele>
        <time>2011-02-19T08:17:04Z</time>
      </trkpt>
      <trkpt lat="45.44125" lon="5.78424">
        <ele>480</ele>
        <time>2011-02-19T08:17:18Z</time>
      </trkpt>
      <trkpt lat="45.44122" lon="5.78426">
        <ele>482</ele>
        <time>2011-02-19T08:17:31Z</time>
      </trkpt>
      <trkpt lat="45.4412" lon="5.78425">
        <ele>484</ele>
        <time>2011-02-19T08:17:52Z</time>
      </trkpt>
      <trkpt lat="45.44119" lon="5.78426">
        <ele>485</ele>
        <time>2011-02-19T08:18:03Z</time>
      </trkpt>
      <trkpt lat="45.44119" lon="5.78426">
        <ele>488</ele>
        <time>2011-02-19T08:21:11Z</time>
      </trkpt>
      <trkpt lat="45.44118" lon="5.78429">
        <ele>491</ele>
        <time>2011-02-19T08:23:16Z</time>
      </trkpt>
      <trkpt lat="45.44119" lon="5.78435">
        <ele>493</ele>
        <time>2011-02-19T08:23:30Z</time>
      </trkpt>
      <trkpt lat="45.44119" lon="5.78439">
        <ele>494</ele>
        <time>2011-02-19T08:23:48Z</time>
      </trkpt>
      <trkpt lat="45.44122" lon="5.7844">
        <ele>495</ele>
        <time>2011-02-19T08:23:57Z</time>
      </trkpt>
      <trkpt lat="45.44122" lon="5.78438">
        <ele>496</ele>
        <time>2011-02-19T08:24:34Z</time>
      </trkpt>
      <trkpt lat="45.44127" lon="5.78438">
        <ele>499</ele>
        <time>2011-02-19T08:24:46Z</time>
      </trkpt>
      <trkpt lat="45.4413" lon="5.78437">
        <ele>501</ele>
        <time>2011-02-19T08:24:51Z</time>
      </trkpt>
      <trkpt lat="45.44136" lon="5.78434">
        <ele>503</ele>
        <time>2011-02-19T08:25:03Z</time>
      </trkpt>
      <trkpt lat="45.44133" lon="5.78438">
        <ele>503</ele>
        <time>2011-02-19T08:25:11Z</time>
      </trkpt>
      <trkpt lat="45.44128" lon="5.7844">
        <ele>504</ele>
        <time>2011-02-19T08:25:32Z</time>
      </trkpt>
      <trkpt lat="45.44121" lon="5.78444">
        <ele>505</ele>
        <time>2011-02-19T08:26:13Z</time>
      </trkpt>
      <trkpt lat="45.44121" lon="5.78443">
        <ele>505</ele>
        <time>2011-02-19T08:26:31Z</time>
      </trkpt>
      <trkpt lat="45.4412" lon="5.78448">
        <ele>506</ele>
        <time>2011-02-19T08:28:19Z</time>
      </trkpt>
      <trkpt lat="45.4412" lon="5.78454">
        <ele>510</ele>
        <time>2011-02-19T08:28:52Z</time>
      </trkpt>
      <trkpt lat="45.44123" lon="5.78464">
        <ele>513</ele>
        <time>2011-02-19T08:29:06Z</time>
      </trkpt>
      <trkpt lat="45.44124" lon="5.78471">
        <ele>514</ele>
        <time>2011-02-19T08:29:17Z</time>
      </trkpt>
      <trkpt lat="45.44119" lon="5.78483">
        <ele>517</ele>
        <time>2011-02-19T08:29:31Z</time>
      </trkpt>
      <trkpt lat="45.44112" lon="5.78493">
        <ele>518</ele>
        <time>2011-02-19T08:29:45Z</time>
      </trkpt>
      <trkpt lat="45.44103" lon="5.78507">
        <ele>520</ele>
        <time>2011-02-19T08:29:56Z</time>
      </trkpt>
      <trkpt lat="45.44107" lon="5.78511">
        <ele>522</ele>
        <time>2011-02-19T08:30:14Z</time>
      </trkpt>
      <trkpt lat="45.4411" lon="5.78511">
        <ele>524</ele>
        <time>2011-02-19T08:31:55Z</time>
      </trkpt>
      <trkpt lat="45.44111" lon="5.7851">
        <ele>524</ele>
        <time>2011-02-19T08:31:59Z</time>
      </trkpt>
      <trkpt lat="45.44135" lon="5.78494">
        <ele>525</ele>
        <time>2011-02-19T08:32:15Z</time>
      </trkpt>
      <trkpt lat="45.44145" lon="5.78482">
        <ele>527</ele>
        <time>2011-02-19T08:32:25Z</time>
      </trkpt>
      <trkpt lat="45.44157" lon="5.78471">
        <ele>528</ele>
        <time>2011-02-19T08:32:40Z</time>
      </trkpt>
      <trkpt lat="45.44177" lon="5.78478">
        <ele>530</ele>
        <time>2011-02-19T08:32:52Z</time>
      </trkpt>
      <trkpt lat="45.44193" lon="5.7848">
        <ele>533</ele>
        <time>2011-02-19T08:33:03Z</time>
      </trkpt>
      <trkpt lat="45.44209" lon="5.78474">
        <ele>533</ele>
        <time>2011-02-19T08:33:13Z</time>
      </trkpt>
      <trkpt lat="45.44217" lon="5.78479">
        <ele>536</ele>
        <time>2011-02-19T08:33:25Z</time>
      </trkpt>
      <trkpt lat="45.44223" lon="5.78479">
        <ele>537</ele>
        <time>2011-02-19T08:33:38Z</time>
      </trkpt>
      <trkpt lat="45.44224" lon="5.78479">
        <ele>537</ele>
        <time>2011-02-19T08:33:39Z</time>
      </trkpt>
      <trkpt lat="45.44234" lon="5.7848">
        <ele>538</ele>
        <time>2011-02-19T08:33:46Z</time>
      </trkpt>
      <trkpt lat="45.44239" lon="5.78478">
        <ele>538</ele>
        <time>2011-02-19T08:33:50Z</time>
      </trkpt>
      <trkpt lat="45.44253" lon="5.78474">
        <ele>539</ele>
        <time>2011-02-19T08:33:58Z</time>
      </trkpt>
      <trkpt lat="45.44262" lon="5.78477">
        <ele>542</ele>
        <time>2011-02-19T08:34:09Z</time>
      </trkpt>
      <trkpt lat="45.44269" lon="5.7848">
        <ele>544</ele>
        <time>2011-02-19T08:34:17Z</time>
      </trkpt>
      <trkpt lat="45.44282" lon="5.78481">
        <ele>547</ele>
        <time>2011-02-19T08:34:31Z</time>
      </trkpt>
      <trkpt lat="45.44298" lon="5.78479">
        <ele>550</ele>
        <time>2011-02-19T08:34:47Z</time>
      </trkpt>
      <trkpt lat="45.44308" lon="5.78479">
        <ele>553</ele>
        <time>2011-02-19T08:35:02Z</time>
      </trkpt>
      <trkpt lat="45.44311" lon="5.78477">
        <ele>554</ele>
        <time>2011-02-19T08:35:08Z</time>
      </trkpt>
      <trkpt lat="45.44322" lon="5.78471">
        <ele>555</ele>
        <time>2011-02-19T08:35:27Z</time>
      </trkpt>
      <trkpt lat="45.44325" lon="5.7847">
        <ele>556</ele>
        <time>2011-02-19T08:35:39Z</time>
      </trkpt>
      <trkpt lat="45.44332" lon="5.7847">
        <ele>557</ele>
        <time>2011-02-19T08:37:08Z</time>
      </trkpt>
      <trkpt lat="45.4435" lon="5.78473">
        <ele>558</ele>
        <time>2011-02-19T08:37:21Z</time>
      </trkpt>
      <trkpt lat="45.44361" lon="5.78468">
        <ele>558</ele>
        <time>2011-02-19T08:37:27Z</time>
      </trkpt>
      <trkpt lat="45.44365" lon="5.78468">
        <ele>558</ele>
        <time>2011-02-19T08:37:29Z</time>
      </trkpt>
      <trkpt lat="45.44372" lon="5.78462">
        <ele>558</ele>
        <time>2011-02-19T08:37:33Z</time>
      </trkpt>
      <trkpt lat="45.44391" lon="5.78463">
        <ele>559</ele>
        <time>2011-02-19T08:37:46Z</time>
      </trkpt>
      <trkpt lat="45.44391" lon="5.78462">
        <ele>559</ele>
        <time>2011-02-19T08:37:52Z</time>
      </trkpt>
      <trkpt lat="45.4439" lon="5.78461">
        <ele>560</ele>
        <time>2011-02-19T08:38:13Z</time>
      </trkpt>
      <trkpt lat="45.44391" lon="5.78462">
        <ele>559</ele>
        <time>2011-02-19T08:38:35Z</time>
      </trkpt>
      <trkpt lat="45.44399" lon="5.78467">
        <ele>560</ele>
        <time>2011-02-19T08:38:42Z</time>
      </trkpt>
      <trkpt lat="45.44405" lon="5.78471">
        <ele>561</ele>
        <time>2011-02-19T08:38:47Z</time>
      </trkpt>
      <trkpt lat="45.44425" lon="5.78478">
        <ele>563</ele>
        <time>2011-02-19T08:39:01Z</time>
      </trkpt>
      <trkpt lat="45.44434" lon="5.7848">
        <ele>563</ele>
        <time>2011-02-19T08:39:06Z</time>
      </trkpt>
      <trkpt lat="45.44438" lon="5.78481">
        <ele>563</ele>
        <time>2011-02-19T08:39:09Z</time>
      </trkpt>
      <trkpt lat="45.44458" lon="5.78475">
        <ele>562</ele>
        <time>2011-02-19T08:39:20Z</time>
      </trkpt>
      <trkpt lat="45.44458" lon="5.78473">
        <ele>561</ele>
        <time>2011-02-19T08:39:47Z</time>
      </trkpt>
      <trkpt lat="45.44463" lon="5.78478">
        <ele>562</ele>
        <time>2011-02-19T08:40:32Z</time>
      </trkpt>
      <trkpt lat="45.44472" lon="5.78487">
        <ele>562</ele>
        <time>2011-02-19T08:40:43Z</time>
      </trkpt>
      <trkpt lat="45.44478" lon="5.78494">
        <ele>563</ele>
        <time>2011-02-19T08:40:51Z</time>
      </trkpt>
      <trkpt lat="45.44494" lon="5.78503">
        <ele>561</ele>
        <time>2011-02-19T08:41:01Z</time>
      </trkpt>
      <trkpt lat="45.44497" lon="5.78501">
        <ele>561</ele>
        <time>2011-02-19T08:41:02Z</time>
      </trkpt>
      <trkpt lat="45.44508" lon="5.785">
        <ele>561</ele>
        <time>2011-02-19T08:41:07Z</time>
      </trkpt>
      <trkpt lat="45.44524" lon="5.78504">
        <ele>564</ele>
        <time>2011-02-19T08:41:20Z</time>
      </trkpt>
      <trkpt lat="45.4453" lon="5.78507">
        <ele>566</ele>
        <time>2011-02-19T08:41:33Z</time>
      </trkpt>
      <trkpt lat="45.44539" lon="5.78513">
        <ele>569</ele>
        <time>2011-02-19T08:41:45Z</time>
      </trkpt>
      <trkpt lat="45.44548" lon="5.78516">
        <ele>569</ele>
        <time>2011-02-19T08:41:57Z</time>
      </trkpt>
      <trkpt lat="45.44549" lon="5.78516">
        <ele>569</ele>
        <time>2011-02-19T08:41:58Z</time>
      </trkpt>
      <trkpt lat="45.44559" lon="5.78528">
        <ele>570</ele>
        <time>2011-02-19T08:42:11Z</time>
      </trkpt>
      <trkpt lat="45.44567" lon="5.78538">
        <ele>570</ele>
        <time>2011-02-19T08:42:21Z</time>
      </trkpt>
      <trkpt lat="45.44573" lon="5.78549">
        <ele>570</ele>
        <time>2011-02-19T08:42:36Z</time>
      </trkpt>
      <trkpt lat="45.44576" lon="5.78551">
        <ele>571</ele>
        <time>2011-02-19T08:42:51Z</time>
      </trkpt>
      <trkpt lat="45.44586" lon="5.78561">
        <ele>572</ele>
        <time>2011-02-19T08:43:04Z</time>
      </trkpt>
      <trkpt lat="45.44588" lon="5.7856">
        <ele>572</ele>
        <time>2011-02-19T08:43:21Z</time>
      </trkpt>
      <trkpt lat="45.44604" lon="5.78561">
        <ele>575</ele>
        <time>2011-02-19T08:43:34Z</time>
      </trkpt>
      <trkpt lat="45.44613" lon="5.78558">
        <ele>575</ele>
        <time>2011-02-19T08:43:40Z</time>
      </trkpt>
      <trkpt lat="45.44622" lon="5.78567">
        <ele>576</ele>
        <time>2011-02-19T08:43:47Z</time>
      </trkpt>
      <trkpt lat="45.44629" lon="5.78569">
        <ele>577</ele>
        <time>2011-02-19T08:43:51Z</time>
      </trkpt>
      <trkpt lat="45.44638" lon="5.7857">
        <ele>579</ele>
        <time>2011-02-19T08:44:04Z</time>
      </trkpt>
      <trkpt lat="45.44638" lon="5.78569">
        <ele>582</ele>
        <time>2011-02-19T08:50:27Z</time>
      </trkpt>
      <trkpt lat="45.44638" lon="5.78569">
        <ele>581</ele>
        <time>2011-02-19T08:50:52Z</time>
      </trkpt>
      <trkpt lat="45.44632" lon="5.78569">
        <ele>580</ele>
        <time>2011-02-19T08:50:55Z</time>
      </trkpt>
      <trkpt lat="45.4462" lon="5.7856">
        <ele>578</ele>
        <time>2011-02-19T08:51:00Z</time>
      </trkpt>
      <trkpt lat="45.44611" lon="5.78559">
        <ele>578</ele>
        <time>2011-02-19T08:51:04Z</time>
      </trkpt>
      <trkpt lat="45.44605" lon="5.78562">
        <ele>577</ele>
        <time>2011-02-19T08:51:07Z</time>
      </trkpt>
      <trkpt lat="45.44596" lon="5.7856">
        <ele>576</ele>
        <time>2011-02-19T08:51:10Z</time>
      </trkpt>
      <trkpt lat="45.4459" lon="5.78562">
        <ele>575</ele>
        <time>2011-02-19T08:51:16Z</time>
      </trkpt>
      <trkpt lat="45.4459" lon="5.78562">
        <ele>576</ele>
        <time>2011-02-19T08:51:55Z</time>
      </trkpt>
      <trkpt lat="45.44595" lon="5.78582">
        <ele>577</ele>
        <time>2011-02-19T08:52:07Z</time>
      </trkpt>
      <trkpt lat="45.44601" lon="5.78604">
        <ele>577</ele>
        <time>2011-02-19T08:52:17Z</time>
      </trkpt>
      <trkpt lat="45.44606" lon="5.78616">
        <ele>578</ele>
        <time>2011-02-19T08:52:21Z</time>
      </trkpt>
      <trkpt lat="45.44618" lon="5.78639">
        <ele>580</ele>
        <time>2011-02-19T08:52:32Z</time>
      </trkpt>
      <trkpt lat="45.44628" lon="5.78661">
        <ele>582</ele>
        <time>2011-02-19T08:52:42Z</time>
      </trkpt>
      <trkpt lat="45.44637" lon="5.78685">
        <ele>582</ele>
        <time>2011-02-19T08:52:51Z</time>
      </trkpt>
      <trkpt lat="45.44645" lon="5.78707">
        <ele>583</ele>
        <time>2011-02-19T08:52:59Z</time>
      </trkpt>
      <trkpt lat="45.44647" lon="5.78718">
        <ele>583</ele>
        <time>2011-02-19T08:53:03Z</time>
      </trkpt>
      <trkpt lat="45.44648" lon="5.78749">
        <ele>584</ele>
        <time>2011-02-19T08:53:14Z</time>
      </trkpt>
      <trkpt lat="45.44647" lon="5.78764">
        <ele>587</ele>
        <time>2011-02-19T08:53:21Z</time>
      </trkpt>
      <trkpt lat="45.4465" lon="5.78787">
        <ele>585</ele>
        <time>2011-02-19T08:53:29Z</time>
      </trkpt>
      <trkpt lat="45.44663" lon="5.78805">
        <ele>585</ele>
        <time>2011-02-19T08:53:38Z</time>
      </trkpt>
      <trkpt lat="45.4467" lon="5.78814">
        <ele>584</ele>
        <time>2011-02-19T08:53:42Z</time>
      </trkpt>
      <trkpt lat="45.44673" lon="5.78823">
        <ele>583</ele>
        <time>2011-02-19T08:53:44Z</time>
      </trkpt>
      <trkpt lat="45.4468" lon="5.78849">
        <ele>583</ele>
        <time>2011-02-19T08:53:54Z</time>
      </trkpt>
      <trkpt lat="45.4468" lon="5.78857">
        <ele>583</ele>
        <time>2011-02-19T08:53:57Z</time>
      </trkpt>
      <trkpt lat="45.44675" lon="5.78888">
        <ele>583</ele>
        <time>2011-02-19T08:54:07Z</time>
      </trkpt>
      <trkpt lat="45.44672" lon="5.78896">
        <ele>583</ele>
        <time>2011-02-19T08:54:10Z</time>
      </trkpt>
      <trkpt lat="45.44668" lon="5.78907">
        <ele>582</ele>
        <time>2011-02-19T08:54:13Z</time>
      </trkpt>
      <trkpt lat="45.44662" lon="5.78919">
        <ele>581</ele>
        <time>2011-02-19T08:54:16Z</time>
      </trkpt>
      <trkpt lat="45.44661" lon="5.78928">
        <ele>580</ele>
        <time>2011-02-19T08:54:26Z</time>
      </trkpt>
      <trkpt lat="45.44661" lon="5.78935">
        <ele>579</ele>
        <time>2011-02-19T08:54:41Z</time>
      </trkpt>
      <trkpt lat="45.44662" lon="5.78935">
        <ele>579</ele>
        <time>2011-02-19T08:54:43Z</time>
      </trkpt>
      <trkpt lat="45.4466" lon="5.78946">
        <ele>579</ele>
        <time>2011-02-19T08:54:47Z</time>
      </trkpt>
      <trkpt lat="45.4466" lon="5.78952">
        <ele>579</ele>
        <time>2011-02-19T08:54:56Z</time>
      </trkpt>
      <trkpt lat="45.44664" lon="5.78969">
        <ele>580</ele>
        <time>2011-02-19T08:55:09Z</time>
      </trkpt>
      <trkpt lat="45.44663" lon="5.78994">
        <ele>580</ele>
        <time>2011-02-19T08:55:21Z</time>
      </trkpt>
      <trkpt lat="45.44663" lon="5.78999">
        <ele>579</ele>
        <time>2011-02-19T08:55:24Z</time>
      </trkpt>
      <trkpt lat="45.44669" lon="5.79027">
        <ele>579</ele>
        <time>2011-02-19T08:55:34Z</time>
      </trkpt>
      <trkpt lat="45.44669" lon="5.79039">
        <ele>578</ele>
        <time>2011-02-19T08:55:37Z</time>
      </trkpt>
      <trkpt lat="45.44674" lon="5.79051">
        <ele>577</ele>
        <time>2011-02-19T08:55:41Z</time>
      </trkpt>
      <trkpt lat="45.44678" lon="5.79051">
        <ele>577</ele>
        <time>2011-02-19T08:55:51Z</time>
      </trkpt>
      <trkpt lat="45.44683" lon="5.79051">
        <ele>576</ele>
        <time>2011-02-19T08:56:08Z</time>
      </trkpt>
      <trkpt lat="45.44697" lon="5.79042">
        <ele>575</ele>
        <time>2011-02-19T08:56:17Z</time>
      </trkpt>
      <trkpt lat="45.44703" lon="5.79039">
        <ele>576</ele>
        <time>2011-02-19T08:56:21Z</time>
      </trkpt>
      <trkpt lat="45.44709" lon="5.79033">
        <ele>575</ele>
        <time>2011-02-19T08:56:25Z</time>
      </trkpt>
      <trkpt lat="45.44717" lon="5.79035">
        <ele>573</ele>
        <time>2011-02-19T08:56:31Z</time>
      </trkpt>
      <trkpt lat="45.44725" lon="5.79038">
        <ele>569</ele>
        <time>2011-02-19T08:56:36Z</time>
      </trkpt>
      <trkpt lat="45.44731" lon="5.79042">
        <ele>568</ele>
        <time>2011-02-19T08:56:38Z</time>
      </trkpt>
      <trkpt lat="45.4475" lon="5.79051">
        <ele>564</ele>
        <time>2011-02-19T08:56:45Z</time>
      </trkpt>
      <trkpt lat="45.44768" lon="5.79058">
        <ele>565</ele>
        <time>2011-02-19T08:56:56Z</time>
      </trkpt>
      <trkpt lat="45.4477" lon="5.79058">
        <ele>565</ele>
        <time>2011-02-19T08:57:16Z</time>
      </trkpt>
      <trkpt lat="45.44778" lon="5.79082">
        <ele>564</ele>
        <time>2011-02-19T08:57:26Z</time>
      </trkpt>
      <trkpt lat="45.44785" lon="5.7911">
        <ele>563</ele>
        <time>2011-02-19T08:57:36Z</time>
      </trkpt>
      <trkpt lat="45.44786" lon="5.79113">
        <ele>563</ele>
        <time>2011-02-19T08:57:38Z</time>
      </trkpt>
      <trkpt lat="45.4479" lon="5.79125">
        <ele>563</ele>
        <time>2011-02-19T08:57:42Z</time>
      </trkpt>
      <trkpt lat="45.44808" lon="5.79153">
        <ele>563</ele>
        <time>2011-02-19T08:57:53Z</time>
      </trkpt>
      <trkpt lat="45.44812" lon="5.79161">
        <ele>563</ele>
        <time>2011-02-19T08:57:56Z</time>
      </trkpt>
      <trkpt lat="45.44813" lon="5.79177">
        <ele>563</ele>
        <time>2011-02-19T08:58:02Z</time>
      </trkpt>
      <trkpt lat="45.44819" lon="5.792">
        <ele>563</ele>
        <time>2011-02-19T08:58:08Z</time>
      </trkpt>
      <trkpt lat="45.44816" lon="5.79212">
        <ele>563</ele>
        <time>2011-02-19T08:58:12Z</time>
      </trkpt>
      <trkpt lat="45.44799" lon="5.79249">
        <ele>563</ele>
        <time>2011-02-19T08:58:23Z</time>
      </trkpt>
      <trkpt lat="45.44804" lon="5.7927">
        <ele>564</ele>
        <time>2011-02-19T08:58:32Z</time>
      </trkpt>
      <trkpt lat="45.44816" lon="5.79274">
        <ele>564</ele>
        <time>2011-02-19T08:58:37Z</time>
      </trkpt>
      <trkpt lat="45.44832" lon="5.79281">
        <ele>565</ele>
        <time>2011-02-19T08:58:42Z</time>
      </trkpt>
      <trkpt lat="45.44839" lon="5.79277">
        <ele>565</ele>
        <time>2011-02-19T08:58:46Z</time>
      </trkpt>
      <trkpt lat="45.44856" lon="5.7928">
        <ele>568</ele>
        <time>2011-02-19T08:58:57Z</time>
      </trkpt>
      <trkpt lat="45.44882" lon="5.79272">
        <ele>569</ele>
        <time>2011-02-19T08:59:09Z</time>
      </trkpt>
      <trkpt lat="45.44906" lon="5.79275">
        <ele>570</ele>
        <time>2011-02-19T08:59:20Z</time>
      </trkpt>
      <trkpt lat="45.44935" lon="5.79286">
        <ele>573</ele>
        <time>2011-02-19T08:59:34Z</time>
      </trkpt>
      <trkpt lat="45.44953" lon="5.79294">
        <ele>575</ele>
        <time>2011-02-19T08:59:43Z</time>
      </trkpt>
      <trkpt lat="45.44976" lon="5.79285">
        <ele>576</ele>
        <time>2011-02-19T08:59:55Z</time>
      </trkpt>
      <trkpt lat="45.45001" lon="5.79296">
        <ele>578</ele>
        <time>2011-02-19T09:00:08Z</time>
      </trkpt>
      <trkpt lat="45.45019" lon="5.79322">
        <ele>580</ele>
        <time>2011-02-19T09:00:19Z</time>
      </trkpt>
      <trkpt lat="45.45039" lon="5.79346">
        <ele>582</ele>
        <time>2011-02-19T09:00:31Z</time>
      </trkpt>
      <trkpt lat="45.45047" lon="5.79381">
        <ele>583</ele>
        <time>2011-02-19T09:00:44Z</time>
      </trkpt>
      <trkpt lat="45.4507" lon="5.7941">
        <ele>585</ele>
        <time>2011-02-19T09:00:58Z</time>
      </trkpt>
      <trkpt lat="45.45097" lon="5.79434">
        <ele>587</ele>
        <time>2011-02-19T09:01:13Z</time>
      </trkpt>
      <trkpt lat="45.45105" lon="5.79437">
        <ele>588</ele>
        <time>2011-02-19T09:01:28Z</time>
      </trkpt>
      <trkpt lat="45.45124" lon="5.79441">
        <ele>589</ele>
        <time>2011-02-19T09:02:01Z</time>
      </trkpt>
      <trkpt lat="45.45142" lon="5.79445">
        <ele>590</ele>
        <time>2011-02-19T09:02:11Z</time>
      </trkpt>
      <trkpt lat="45.4517" lon="5.79459">
        <ele>591</ele>
        <time>2011-02-19T09:02:24Z</time>
      </trkpt>
      <trkpt lat="45.45183" lon="5.7947">
        <ele>591</ele>
        <time>2011-02-19T09:02:31Z</time>
      </trkpt>
      <trkpt lat="45.45211" lon="5.79507">
        <ele>591</ele>
        <time>2011-02-19T09:02:45Z</time>
      </trkpt>
      <trkpt lat="45.45236" lon="5.79546">
        <ele>591</ele>
        <time>2011-02-19T09:02:59Z</time>
      </trkpt>
      <trkpt lat="45.45259" lon="5.79578">
        <ele>591</ele>
        <time>2011-02-19T09:03:10Z</time>
      </trkpt>
      <trkpt lat="45.45266" lon="5.79588">
        <ele>591</ele>
        <time>2011-02-19T09:03:14Z</time>
      </trkpt>
      <trkpt lat="45.45272" lon="5.79626">
        <ele>588</ele>
        <time>2011-02-19T09:03:24Z</time>
      </trkpt>
      <trkpt lat="45.45273" lon="5.79664">
        <ele>585</ele>
        <time>2011-02-19T09:03:29Z</time>
      </trkpt>
      <trkpt lat="45.45276" lon="5.79694">
        <ele>583</ele>
        <time>2011-02-19T09:03:32Z</time>
      </trkpt>
      <trkpt lat="45.45273" lon="5.79718">
        <ele>581</ele>
        <time>2011-02-19T09:03:35Z</time>
      </trkpt>
      <trkpt lat="45.45273" lon="5.79736">
        <ele>578</ele>
        <time>2011-02-19T09:03:37Z</time>
      </trkpt>
      <trkpt lat="45.45273" lon="5.79754">
        <ele>575</ele>
        <time>2011-02-19T09:03:39Z</time>
      </trkpt>
      <trkpt lat="45.45271" lon="5.79789">
        <ele>572</ele>
        <time>2011-02-19T09:03:42Z</time>
      </trkpt>
      <trkpt lat="45.4527" lon="5.79801">
        <ele>570</ele>
        <time>2011-02-19T09:03:43Z</time>
      </trkpt>
      <trkpt lat="45.45272" lon="5.79827">
        <ele>569</ele>
        <time>2011-02-19T09:03:45Z</time>
      </trkpt>
      <trkpt lat="45.45274" lon="5.79848">
        <ele>568</ele>
        <time>2011-02-19T09:03:47Z</time>
      </trkpt>
      <trkpt lat="45.45272" lon="5.79878">
        <ele>566</ele>
        <time>2011-02-19T09:03:50Z</time>
      </trkpt>
      <trkpt lat="45.45272" lon="5.79889">
        <ele>564</ele>
        <time>2011-02-19T09:03:51Z</time>
      </trkpt>
      <trkpt lat="45.45277" lon="5.79938">
        <ele>560</ele>
        <time>2011-02-19T09:03:55Z</time>
      </trkpt>
      <trkpt lat="45.45284" lon="5.79968">
        <ele>559</ele>
        <time>2011-02-19T09:03:57Z</time>
      </trkpt>
      <trkpt lat="45.45284" lon="5.80007">
        <ele>560</ele>
        <time>2011-02-19T09:04:00Z</time>
      </trkpt>
      <trkpt lat="45.45296" lon="5.80035">
        <ele>562</ele>
        <time>2011-02-19T09:04:04Z</time>
      </trkpt>
      <trkpt lat="45.45308" lon="5.80074">
        <ele>563</ele>
        <time>2011-02-19T09:04:15Z</time>
      </trkpt>
      <trkpt lat="45.45342" lon="5.80153">
        <ele>564</ele>
        <time>2011-02-19T09:04:38Z</time>
      </trkpt>
      <trkpt lat="45.45373" lon="5.80187">
        <ele>567</ele>
        <time>2011-02-19T09:04:50Z</time>
      </trkpt>
      <trkpt lat="45.45394" lon="5.80207">
        <ele>568</ele>
        <time>2011-02-19T09:04:57Z</time>
      </trkpt>
      <trkpt lat="45.45416" lon="5.80259">
        <ele>566</ele>
        <time>2011-02-19T09:05:08Z</time>
      </trkpt>
      <trkpt lat="45.45422" lon="5.8028">
        <ele>568</ele>
        <time>2011-02-19T09:05:15Z</time>
      </trkpt>
      <trkpt lat="45.45439" lon="5.80315">
        <ele>571</ele>
        <time>2011-02-19T09:05:28Z</time>
      </trkpt>
      <trkpt lat="45.45453" lon="5.80332">
        <ele>573</ele>
        <time>2011-02-19T09:05:38Z</time>
      </trkpt>
      <trkpt lat="45.45468" lon="5.8035">
        <ele>576</ele>
        <time>2011-02-19T09:05:49Z</time>
      </trkpt>
      <trkpt lat="45.45476" lon="5.80358">
        <ele>577</ele>
        <time>2011-02-19T09:05:54Z</time>
      </trkpt>
      <trkpt lat="45.45487" lon="5.80368">
        <ele>580</ele>
        <time>2011-02-19T09:06:04Z</time>
      </trkpt>
      <trkpt lat="45.45494" lon="5.80373">
        <ele>581</ele>
        <time>2011-02-19T09:06:08Z</time>
      </trkpt>
      <trkpt lat="45.45505" lon="5.80377">
        <ele>584</ele>
        <time>2011-02-19T09:06:15Z</time>
      </trkpt>
      <trkpt lat="45.45519" lon="5.8038">
        <ele>587</ele>
        <time>2011-02-19T09:06:25Z</time>
      </trkpt>
      <trkpt lat="45.4553" lon="5.80385">
        <ele>588</ele>
        <time>2011-02-19T09:06:37Z</time>
      </trkpt>
      <trkpt lat="45.45529" lon="5.80385">
        <ele>588</ele>
        <time>2011-02-19T09:08:53Z</time>
      </trkpt>
      <trkpt lat="45.45546" lon="5.80404">
        <ele>588</ele>
        <time>2011-02-19T09:09:43Z</time>
      </trkpt>
      <trkpt lat="45.45564" lon="5.80423">
        <ele>589</ele>
        <time>2011-02-19T09:09:56Z</time>
      </trkpt>
      <trkpt lat="45.45571" lon="5.80428">
        <ele>590</ele>
        <time>2011-02-19T09:10:01Z</time>
      </trkpt>
      <trkpt lat="45.45574" lon="5.80431">
        <ele>590</ele>
        <time>2011-02-19T09:10:03Z</time>
      </trkpt>
      <trkpt lat="45.45597" lon="5.80453">
        <ele>593</ele>
        <time>2011-02-19T09:10:18Z</time>
      </trkpt>
      <trkpt lat="45.45599" lon="5.80455">
        <ele>593</ele>
        <time>2011-02-19T09:10:20Z</time>
      </trkpt>
      <trkpt lat="45.45615" lon="5.80474">
        <ele>595</ele>
        <time>2011-02-19T09:10:34Z</time>
      </trkpt>
      <trkpt lat="45.45633" lon="5.80493">
        <ele>599</ele>
        <time>2011-02-19T09:10:48Z</time>
      </trkpt>
      <trkpt lat="45.45648" lon="5.80504">
        <ele>601</ele>
        <time>2011-02-19T09:10:59Z</time>
      </trkpt>
      <trkpt lat="45.45665" lon="5.80517">
        <ele>605</ele>
        <time>2011-02-19T09:11:13Z</time>
      </trkpt>
      <trkpt lat="45.45676" lon="5.80525">
        <ele>606</ele>
        <time>2011-02-19T09:11:21Z</time>
      </trkpt>
      <trkpt lat="45.45681" lon="5.80528">
        <ele>606</ele>
        <time>2011-02-19T09:11:24Z</time>
      </trkpt>
      <trkpt lat="45.45695" lon="5.80546">
        <ele>608</ele>
        <time>2011-02-19T09:11:36Z</time>
      </trkpt>
      <trkpt lat="45.45709" lon="5.80565">
        <ele>611</ele>
        <time>2011-02-19T09:11:48Z</time>
      </trkpt>
      <trkpt lat="45.45723" lon="5.80591">
        <ele>613</ele>
        <time>2011-02-19T09:12:02Z</time>
      </trkpt>
      <trkpt lat="45.45728" lon="5.80622">
        <ele>612</ele>
        <time>2011-02-19T09:12:14Z</time>
      </trkpt>
      <trkpt lat="45.45729" lon="5.80625">
        <ele>612</ele>
        <time>2011-02-19T09:12:15Z</time>
      </trkpt>
      <trkpt lat="45.45728" lon="5.80633">
        <ele>612</ele>
        <time>2011-02-19T09:12:19Z</time>
      </trkpt>
      <trkpt lat="45.45728" lon="5.8065">
        <ele>612</ele>
        <time>2011-02-19T09:12:26Z</time>
      </trkpt>
      <trkpt lat="45.45733" lon="5.80695">
        <ele>611</ele>
        <time>2011-02-19T09:12:38Z</time>
      </trkpt>
      <trkpt lat="45.45734" lon="5.80719">
        <ele>609</ele>
        <time>2011-02-19T09:12:43Z</time>
      </trkpt>
      <trkpt lat="45.45738" lon="5.80728">
        <ele>608</ele>
        <time>2011-02-19T09:12:45Z</time>
      </trkpt>
      <trkpt lat="45.45748" lon="5.80754">
        <ele>604</ele>
        <time>2011-02-19T09:12:50Z</time>
      </trkpt>
      <trkpt lat="45.45778" lon="5.80809">
        <ele>605</ele>
        <time>2011-02-19T09:12:58Z</time>
      </trkpt>
      <trkpt lat="45.45787" lon="5.80816">
        <ele>607</ele>
        <time>2011-02-19T09:13:01Z</time>
      </trkpt>
      <trkpt lat="45.45798" lon="5.8084">
        <ele>607</ele>
        <time>2011-02-19T09:13:14Z</time>
      </trkpt>
      <trkpt lat="45.45808" lon="5.80858">
        <ele>608</ele>
        <time>2011-02-19T09:13:25Z</time>
      </trkpt>
      <trkpt lat="45.45823" lon="5.80875">
        <ele>610</ele>
        <time>2011-02-19T09:13:36Z</time>
      </trkpt>
      <trkpt lat="45.45836" lon="5.80885">
        <ele>611</ele>
        <time>2011-02-19T09:13:45Z</time>
      </trkpt>
      <trkpt lat="45.45853" lon="5.809">
        <ele>611</ele>
        <time>2011-02-19T09:13:55Z</time>
      </trkpt>
      <trkpt lat="45.45871" lon="5.80926">
        <ele>607</ele>
        <time>2011-02-19T09:14:02Z</time>
      </trkpt>
      <trkpt lat="45.45887" lon="5.80949">
        <ele>606</ele>
        <time>2011-02-19T09:14:06Z</time>
      </trkpt>
      <trkpt lat="45.45895" lon="5.80959">
        <ele>606</ele>
        <time>2011-02-19T09:14:08Z</time>
      </trkpt>
      <trkpt lat="45.45934" lon="5.80994">
        <ele>605</ele>
        <time>2011-02-19T09:14:20Z</time>
      </trkpt>
      <trkpt lat="45.45968" lon="5.81029">
        <ele>603</ele>
        <time>2011-02-19T09:14:32Z</time>
      </trkpt>
      <trkpt lat="45.45976" lon="5.81053">
        <ele>601</ele>
        <time>2011-02-19T09:14:38Z</time>
      </trkpt>
      <trkpt lat="45.45979" lon="5.81093">
        <ele>598</ele>
        <time>2011-02-19T09:14:44Z</time>
      </trkpt>
      <trkpt lat="45.45977" lon="5.81116">
        <ele>600</ele>
        <time>2011-02-19T09:14:47Z</time>
      </trkpt>
      <trkpt lat="45.45975" lon="5.81152">
        <ele>598</ele>
        <time>2011-02-19T09:14:52Z</time>
      </trkpt>
      <trkpt lat="45.45963" lon="5.81254">
        <ele>600</ele>
        <time>2011-02-19T09:15:11Z</time>
      </trkpt>
      <trkpt lat="45.45961" lon="5.81263">
        <ele>600</ele>
        <time>2011-02-19T09:15:13Z</time>
      </trkpt>
      <trkpt lat="45.45964" lon="5.81275">
        <ele>598</ele>
        <time>2011-02-19T09:15:16Z</time>
      </trkpt>
      <trkpt lat="45.45966" lon="5.81278">
        <ele>598</ele>
        <time>2011-02-19T09:15:17Z</time>
      </trkpt>
      <trkpt lat="45.46022" lon="5.81329">
        <ele>598</ele>
        <time>2011-02-19T09:15:36Z</time>
      </trkpt>
      <trkpt lat="45.46086" lon="5.8137">
        <ele>597</ele>
        <time>2011-02-19T09:15:55Z</time>
      </trkpt>
      <trkpt lat="45.46135" lon="5.81398">
        <ele>600</ele>
        <time>2011-02-19T09:16:11Z</time>
      </trkpt>
      <trkpt lat="45.46189" lon="5.8145">
        <ele>603</ele>
        <time>2011-02-19T09:16:33Z</time>
      </trkpt>
      <trkpt lat="45.46238" lon="5.815">
        <ele>606</ele>
        <time>2011-02-19T09:16:54Z</time>
      </trkpt>
      <trkpt lat="45.46286" lon="5.81534">
        <ele>610</ele>
        <time>2011-02-19T09:17:13Z</time>
      </trkpt>
      <trkpt lat="45.4632" lon="5.81545">
        <ele>612</ele>
        <time>2011-02-19T09:17:29Z</time>
      </trkpt>
      <trkpt lat="45.46354" lon="5.81532">
        <ele>616</ele>
        <time>2011-02-19T09:17:47Z</time>
      </trkpt>
      <trkpt lat="45.46378" lon="5.81547">
        <ele>618</ele>
        <time>2011-02-19T09:18:00Z</time>
      </trkpt>
      <trkpt lat="45.4638" lon="5.81548">
        <ele>618</ele>
        <time>2011-02-19T09:18:01Z</time>
      </trkpt>
      <trkpt lat="45.46389" lon="5.81553">
        <ele>619</ele>
        <time>2011-02-19T09:18:07Z</time>
      </trkpt>
      <trkpt lat="45.46406" lon="5.8157">
        <ele>620</ele>
        <time>2011-02-19T09:18:20Z</time>
      </trkpt>
      <trkpt lat="45.46413" lon="5.81577">
        <ele>621</ele>
        <time>2011-02-19T09:18:25Z</time>
      </trkpt>
      <trkpt lat="45.46439" lon="5.8159">
        <ele>622</ele>
        <time>2011-02-19T09:18:39Z</time>
      </trkpt>
      <trkpt lat="45.46461" lon="5.81608">
        <ele>624</ele>
        <time>2011-02-19T09:18:51Z</time>
      </trkpt>
      <trkpt lat="45.46477" lon="5.81622">
        <ele>625</ele>
        <time>2011-02-19T09:19:01Z</time>
      </trkpt>
      <trkpt lat="45.46483" lon="5.81627">
        <ele>626</ele>
        <time>2011-02-19T09:19:05Z</time>
      </trkpt>
      <trkpt lat="45.46498" lon="5.81644">
        <ele>628</ele>
        <time>2011-02-19T09:19:16Z</time>
      </trkpt>
      <trkpt lat="45.46512" lon="5.81656">
        <ele>629</ele>
        <time>2011-02-19T09:19:25Z</time>
      </trkpt>
      <trkpt lat="45.46531" lon="5.81677">
        <ele>630</ele>
        <time>2011-02-19T09:19:35Z</time>
      </trkpt>
      <trkpt lat="45.46559" lon="5.81698">
        <ele>631</ele>
        <time>2011-02-19T09:19:48Z</time>
      </trkpt>
      <trkpt lat="45.46596" lon="5.81697">
        <ele>633</ele>
        <time>2011-02-19T09:20:05Z</time>
      </trkpt>
      <trkpt lat="45.46611" lon="5.8169">
        <ele>635</ele>
        <time>2011-02-19T09:20:14Z</time>
      </trkpt>
      <trkpt lat="45.46614" lon="5.8169">
        <ele>635</ele>
        <time>2011-02-19T09:20:16Z</time>
      </trkpt>
      <trkpt lat="45.4664" lon="5.81688">
        <ele>638</ele>
        <time>2011-02-19T09:20:33Z</time>
      </trkpt>
      <trkpt lat="45.46661" lon="5.81704">
        <ele>639</ele>
        <time>2011-02-19T09:20:45Z</time>
      </trkpt>
      <trkpt lat="45.46694" lon="5.81735">
        <ele>640</ele>
        <time>2011-02-19T09:21:06Z</time>
      </trkpt>
      <trkpt lat="45.46701" lon="5.81761">
        <ele>640</ele>
        <time>2011-02-19T09:21:22Z</time>
      </trkpt>
      <trkpt lat="45.46695" lon="5.81772">
        <ele>640</ele>
        <time>2011-02-19T09:21:59Z</time>
      </trkpt>
      <trkpt lat="45.46693" lon="5.81773">
        <ele>640</ele>
        <time>2011-02-19T09:22:00Z</time>
      </trkpt>
      <trkpt lat="45.4669" lon="5.81804">
        <ele>640</ele>
        <time>2011-02-19T09:22:13Z</time>
      </trkpt>
      <trkpt lat="45.46689" lon="5.81809">
        <ele>640</ele>
        <time>2011-02-19T09:22:28Z</time>
      </trkpt>
      <trkpt lat="45.4669" lon="5.81809">
        <ele>639</ele>
        <time>2011-02-19T09:23:02Z</time>
      </trkpt>
      <trkpt lat="45.46697" lon="5.81825">
        <ele>638</ele>
        <time>2011-02-19T09:23:08Z</time>
      </trkpt>
      <trkpt lat="45.46706" lon="5.8188">
        <ele>638</ele>
        <time>2011-02-19T09:23:24Z</time>
      </trkpt>
      <trkpt lat="45.46705" lon="5.8189">
        <ele>639</ele>
        <time>2011-02-19T09:23:28Z</time>
      </trkpt>
      <trkpt lat="45.46679" lon="5.8195">
        <ele>640</ele>
        <time>2011-02-19T09:23:51Z</time>
      </trkpt>
      <trkpt lat="45.46668" lon="5.81999">
        <ele>641</ele>
        <time>2011-02-19T09:24:08Z</time>
      </trkpt>
      <trkpt lat="45.46694" lon="5.82029">
        <ele>642</ele>
        <time>2011-02-19T09:24:21Z</time>
      </trkpt>
      <trkpt lat="45.46746" lon="5.82062">
        <ele>645</ele>
        <time>2011-02-19T09:24:42Z</time>
      </trkpt>
      <trkpt lat="45.46768" lon="5.82065">
        <ele>648</ele>
        <time>2011-02-19T09:24:54Z</time>
      </trkpt>
      <trkpt lat="45.46807" lon="5.82069">
        <ele>651</ele>
        <time>2011-02-19T09:25:19Z</time>
      </trkpt>
      <trkpt lat="45.46828" lon="5.82082">
        <ele>654</ele>
        <time>2011-02-19T09:25:34Z</time>
      </trkpt>
      <trkpt lat="45.46862" lon="5.82101">
        <ele>656</ele>
        <time>2011-02-19T09:25:55Z</time>
      </trkpt>
      <trkpt lat="45.4692" lon="5.82129">
        <ele>655</ele>
        <time>2011-02-19T09:26:20Z</time>
      </trkpt>
      <trkpt lat="45.46982" lon="5.8215">
        <ele>652</ele>
        <time>2011-02-19T09:26:39Z</time>
      </trkpt>
      <trkpt lat="45.47025" lon="5.82169">
        <ele>650</ele>
        <time>2011-02-19T09:26:51Z</time>
      </trkpt>
      <trkpt lat="45.47051" lon="5.82174">
        <ele>648</ele>
        <time>2011-02-19T09:26:57Z</time>
      </trkpt>
      <trkpt lat="45.47071" lon="5.8218">
        <ele>646</ele>
        <time>2011-02-19T09:27:01Z</time>
      </trkpt>
      <trkpt lat="45.47102" lon="5.82198">
        <ele>646</ele>
        <time>2011-02-19T09:27:08Z</time>
      </trkpt>
      <trkpt lat="45.47126" lon="5.82234">
        <ele>641</ele>
        <time>2011-02-19T09:27:15Z</time>
      </trkpt>
      <trkpt lat="45.47141" lon="5.82253">
        <ele>638</ele>
        <time>2011-02-19T09:27:18Z</time>
      </trkpt>
      <trkpt lat="45.47162" lon="5.82268">
        <ele>634</ele>
        <time>2011-02-19T09:27:21Z</time>
      </trkpt>
      <trkpt lat="45.472" lon="5.82293">
        <ele>631</ele>
        <time>2011-02-19T09:27:26Z</time>
      </trkpt>
      <trkpt lat="45.47248" lon="5.82312">
        <ele>631</ele>
        <time>2011-02-19T09:27:33Z</time>
      </trkpt>
      <trkpt lat="45.47284" lon="5.82321">
        <ele>629</ele>
        <time>2011-02-19T09:27:42Z</time>
      </trkpt>
      <trkpt lat="45.47288" lon="5.82321">
        <ele>630</ele>
        <time>2011-02-19T09:27:43Z</time>
      </trkpt>
      <trkpt lat="45.47296" lon="5.82294">
        <ele>626</ele>
        <time>2011-02-19T09:27:49Z</time>
      </trkpt>
      <trkpt lat="45.47301" lon="5.82275">
        <ele>624</ele>
        <time>2011-02-19T09:27:52Z</time>
      </trkpt>
      <trkpt lat="45.47306" lon="5.82266">
        <ele>623</ele>
        <time>2011-02-19T09:27:54Z</time>
      </trkpt>
      <trkpt lat="45.4731" lon="5.82263">
        <ele>622</ele>
        <time>2011-02-19T09:27:56Z</time>
      </trkpt>
      <trkpt lat="45.47307" lon="5.82252">
        <ele>622</ele>
        <time>2011-02-19T09:28:02Z</time>
      </trkpt>
      <trkpt lat="45.47304" lon="5.82244">
        <ele>623</ele>
        <time>2011-02-19T09:28:05Z</time>
      </trkpt>
      <trkpt lat="45.47306" lon="5.82215">
        <ele>624</ele>
        <time>2011-02-19T09:28:12Z</time>
      </trkpt>
      <trkpt lat="45.47315" lon="5.82198">
        <ele>624</ele>
        <time>2011-02-19T09:28:17Z</time>
      </trkpt>
      <trkpt lat="45.47358" lon="5.82187">
        <ele>625</ele>
        <time>2011-02-19T09:28:33Z</time>
      </trkpt>
      <trkpt lat="45.47418" lon="5.82186">
        <ele>625</ele>
        <time>2011-02-19T09:28:55Z</time>
      </trkpt>
      <trkpt lat="45.47431" lon="5.8215">
        <ele>627</ele>
        <time>2011-02-19T09:29:06Z</time>
      </trkpt>
      <trkpt lat="45.47439" lon="5.8207">
        <ele>629</ele>
        <time>2011-02-19T09:29:27Z</time>
      </trkpt>
      <trkpt lat="45.47441" lon="5.82025">
        <ele>629</ele>
        <time>2011-02-19T09:29:41Z</time>
      </trkpt>
      <trkpt lat="45.47446" lon="5.81997">
        <ele>629</ele>
        <time>2011-02-19T09:30:12Z</time>
      </trkpt>
      <trkpt lat="45.47451" lon="5.8195">
        <ele>629</ele>
        <time>2011-02-19T09:30:27Z</time>
      </trkpt>
      <trkpt lat="45.47463" lon="5.81928">
        <ele>629</ele>
        <time>2011-02-19T09:30:43Z</time>
      </trkpt>
      <trkpt lat="45.47487" lon="5.8192">
        <ele>630</ele>
        <time>2011-02-19T09:30:57Z</time>
      </trkpt>
      <trkpt lat="45.47488" lon="5.8192">
        <ele>630</ele>
        <time>2011-02-19T09:30:58Z</time>
      </trkpt>
      <trkpt lat="45.4749" lon="5.81912">
        <ele>630</ele>
        <time>2011-02-19T09:31:11Z</time>
      </trkpt>
      <trkpt lat="45.47489" lon="5.8191">
        <ele>629</ele>
        <time>2011-02-19T09:36:56Z</time>
      </trkpt>
      <trkpt lat="45.4749" lon="5.81912">
        <ele>629</ele>
        <time>2011-02-19T09:37:24Z</time>
      </trkpt>
      <trkpt lat="45.4749" lon="5.81913">
        <ele>629</ele>
        <time>2011-02-19T09:37:43Z</time>
      </trkpt>
      <trkpt lat="45.47504" lon="5.81914">
        <ele>628</ele>
        <time>2011-02-19T09:39:10Z</time>
      </trkpt>
      <trkpt lat="45.47537" lon="5.81915">
        <ele>630</ele>
        <time>2011-02-19T09:39:18Z</time>
      </trkpt>
      <trkpt lat="45.47561" lon="5.81917">
        <ele>630</ele>
        <time>2011-02-19T09:39:24Z</time>
      </trkpt>
      <trkpt lat="45.47593" lon="5.8192">
        <ele>633</ele>
        <time>2011-02-19T09:39:35Z</time>
      </trkpt>
      <trkpt lat="45.47604" lon="5.81921">
        <ele>635</ele>
        <time>2011-02-19T09:39:41Z</time>
      </trkpt>
      <trkpt lat="45.47608" lon="5.81921">
        <ele>635</ele>
        <time>2011-02-19T09:39:43Z</time>
      </trkpt>
      <trkpt lat="45.47614" lon="5.81927">
        <ele>636</ele>
        <time>2011-02-19T09:39:47Z</time>
      </trkpt>
      <trkpt lat="45.47629" lon="5.81927">
        <ele>637</ele>
        <time>2011-02-19T09:39:56Z</time>
      </trkpt>
      <trkpt lat="45.47648" lon="5.81915">
        <ele>639</ele>
        <time>2011-02-19T09:40:10Z</time>
      </trkpt>
      <trkpt lat="45.47654" lon="5.81909">
        <ele>639</ele>
        <time>2011-02-19T09:40:15Z</time>
      </trkpt>
      <trkpt lat="45.47663" lon="5.81908">
        <ele>639</ele>
        <time>2011-02-19T09:40:20Z</time>
      </trkpt>
      <trkpt lat="45.47684" lon="5.81922">
        <ele>641</ele>
        <time>2011-02-19T09:40:34Z</time>
      </trkpt>
      <trkpt lat="45.47695" lon="5.81927">
        <ele>642</ele>
        <time>2011-02-19T09:40:41Z</time>
      </trkpt>
      <trkpt lat="45.47706" lon="5.81931">
        <ele>644</ele>
        <time>2011-02-19T09:40:49Z</time>
      </trkpt>
      <trkpt lat="45.47727" lon="5.81934">
        <ele>645</ele>
        <time>2011-02-19T09:41:02Z</time>
      </trkpt>
      <trkpt lat="45.47735" lon="5.81936">
        <ele>645</ele>
        <time>2011-02-19T09:41:07Z</time>
      </trkpt>
      <trkpt lat="45.47748" lon="5.81942">
        <ele>646</ele>
        <time>2011-02-19T09:41:16Z</time>
      </trkpt>
      <trkpt lat="45.47772" lon="5.81947">
        <ele>649</ele>
        <time>2011-02-19T09:41:31Z</time>
      </trkpt>
      <trkpt lat="45.47784" lon="5.81947">
        <ele>649</ele>
        <time>2011-02-19T09:41:40Z</time>
      </trkpt>
      <trkpt lat="45.47813" lon="5.81962">
        <ele>651</ele>
        <time>2011-02-19T09:42:00Z</time>
      </trkpt>
      <trkpt lat="45.47817" lon="5.81961">
        <ele>651</ele>
        <time>2011-02-19T09:42:02Z</time>
      </trkpt>
      <trkpt lat="45.47821" lon="5.81963">
        <ele>652</ele>
        <time>2011-02-19T09:42:05Z</time>
      </trkpt>
      <trkpt lat="45.47824" lon="5.81964">
        <ele>652</ele>
        <time>2011-02-19T09:42:07Z</time>
      </trkpt>
      <trkpt lat="45.47832" lon="5.81964">
        <ele>652</ele>
        <time>2011-02-19T09:42:12Z</time>
      </trkpt>
      <trkpt lat="45.47839" lon="5.81966">
        <ele>653</ele>
        <time>2011-02-19T09:42:17Z</time>
      </trkpt>
      <trkpt lat="45.47845" lon="5.81967">
        <ele>653</ele>
        <time>2011-02-19T09:42:21Z</time>
      </trkpt>
      <trkpt lat="45.47848" lon="5.81969">
        <ele>654</ele>
        <time>2011-02-19T09:42:23Z</time>
      </trkpt>
      <trkpt lat="45.47852" lon="5.8197">
        <ele>654</ele>
        <time>2011-02-19T09:42:25Z</time>
      </trkpt>
      <trkpt lat="45.47863" lon="5.81976">
        <ele>655</ele>
        <time>2011-02-19T09:42:32Z</time>
      </trkpt>
      <trkpt lat="45.4787" lon="5.81978">
        <ele>655</ele>
        <time>2011-02-19T09:42:37Z</time>
      </trkpt>
      <trkpt lat="45.47881" lon="5.81982">
        <ele>656</ele>
        <time>2011-02-19T09:42:44Z</time>
      </trkpt>
      <trkpt lat="45.47883" lon="5.81986">
        <ele>656</ele>
        <time>2011-02-19T09:42:46Z</time>
      </trkpt>
      <trkpt lat="45.47894" lon="5.8199">
        <ele>657</ele>
        <time>2011-02-19T09:42:53Z</time>
      </trkpt>
      <trkpt lat="45.47901" lon="5.81992">
        <ele>658</ele>
        <time>2011-02-19T09:42:57Z</time>
      </trkpt>
      <trkpt lat="45.47904" lon="5.81993">
        <ele>658</ele>
        <time>2011-02-19T09:42:59Z</time>
      </trkpt>
      <trkpt lat="45.47913" lon="5.81997">
        <ele>659</ele>
        <time>2011-02-19T09:43:05Z</time>
      </trkpt>
      <trkpt lat="45.4793" lon="5.82008">
        <ele>660</ele>
        <time>2011-02-19T09:43:17Z</time>
      </trkpt>
      <trkpt lat="45.47937" lon="5.82007">
        <ele>661</ele>
        <time>2011-02-19T09:43:22Z</time>
      </trkpt>
      <trkpt lat="45.47945" lon="5.8201">
        <ele>662</ele>
        <time>2011-02-19T09:43:27Z</time>
      </trkpt>
      <trkpt lat="45.47948" lon="5.8201">
        <ele>662</ele>
        <time>2011-02-19T09:43:29Z</time>
      </trkpt>
      <trkpt lat="45.47952" lon="5.82012">
        <ele>662</ele>
        <time>2011-02-19T09:43:32Z</time>
      </trkpt>
      <trkpt lat="45.47974" lon="5.82025">
        <ele>664</ele>
        <time>2011-02-19T09:43:46Z</time>
      </trkpt>
      <trkpt lat="45.47978" lon="5.82026">
        <ele>665</ele>
        <time>2011-02-19T09:43:49Z</time>
      </trkpt>
      <trkpt lat="45.47998" lon="5.82037">
        <ele>667</ele>
        <time>2011-02-19T09:44:04Z</time>
      </trkpt>
      <trkpt lat="45.48015" lon="5.82047">
        <ele>668</ele>
        <time>2011-02-19T09:44:19Z</time>
      </trkpt>
      <trkpt lat="45.48016" lon="5.82046">
        <ele>668</ele>
        <time>2011-02-19T09:44:42Z</time>
      </trkpt>
      <trkpt lat="45.48027" lon="5.82054">
        <ele>669</ele>
        <time>2011-02-19T09:44:51Z</time>
      </trkpt>
      <trkpt lat="45.48052" lon="5.82074">
        <ele>672</ele>
        <time>2011-02-19T09:45:05Z</time>
      </trkpt>
      <trkpt lat="45.48056" lon="5.82082">
        <ele>672</ele>
        <time>2011-02-19T09:45:08Z</time>
      </trkpt>
      <trkpt lat="45.48076" lon="5.8209">
        <ele>675</ele>
        <time>2011-02-19T09:45:19Z</time>
      </trkpt>
      <trkpt lat="45.48103" lon="5.82098">
        <ele>678</ele>
        <time>2011-02-19T09:45:34Z</time>
      </trkpt>
      <trkpt lat="45.48131" lon="5.8211">
        <ele>681</ele>
        <time>2011-02-19T09:45:53Z</time>
      </trkpt>
      <trkpt lat="45.48132" lon="5.8211">
        <ele>681</ele>
        <time>2011-02-19T09:45:54Z</time>
      </trkpt>
      <trkpt lat="45.48137" lon="5.82111">
        <ele>681</ele>
        <time>2011-02-19T09:45:57Z</time>
      </trkpt>
      <trkpt lat="45.48142" lon="5.82112">
        <ele>682</ele>
        <time>2011-02-19T09:46:01Z</time>
      </trkpt>
      <trkpt lat="45.48145" lon="5.82113">
        <ele>682</ele>
        <time>2011-02-19T09:46:03Z</time>
      </trkpt>
      <trkpt lat="45.48149" lon="5.82113">
        <ele>682</ele>
        <time>2011-02-19T09:46:06Z</time>
      </trkpt>
      <trkpt lat="45.48158" lon="5.8212">
        <ele>683</ele>
        <time>2011-02-19T09:46:13Z</time>
      </trkpt>
      <trkpt lat="45.48171" lon="5.82128">
        <ele>684</ele>
        <time>2011-02-19T09:46:23Z</time>
      </trkpt>
      <trkpt lat="45.4819" lon="5.82135">
        <ele>686</ele>
        <time>2011-02-19T09:46:38Z</time>
      </trkpt>
      <trkpt lat="45.48196" lon="5.82138">
        <ele>687</ele>
        <time>2011-02-19T09:46:43Z</time>
      </trkpt>
      <trkpt lat="45.48211" lon="5.82141">
        <ele>688</ele>
        <time>2011-02-19T09:46:54Z</time>
      </trkpt>
      <trkpt lat="45.48221" lon="5.82138">
        <ele>689</ele>
        <time>2011-02-19T09:47:01Z</time>
      </trkpt>
      <trkpt lat="45.48228" lon="5.82138">
        <ele>690</ele>
        <time>2011-02-19T09:47:06Z</time>
      </trkpt>
      <trkpt lat="45.48247" lon="5.82134">
        <ele>692</ele>
        <time>2011-02-19T09:47:20Z</time>
      </trkpt>
      <trkpt lat="45.48267" lon="5.82131">
        <ele>696</ele>
        <time>2011-02-19T09:47:36Z</time>
      </trkpt>
      <trkpt lat="45.48277" lon="5.82128">
        <ele>697</ele>
        <time>2011-02-19T09:47:43Z</time>
      </trkpt>
      <trkpt lat="45.48277" lon="5.82116">
        <ele>698</ele>
        <time>2011-02-19T09:47:51Z</time>
      </trkpt>
      <trkpt lat="45.48246" lon="5.82102">
        <ele>700</ele>
        <time>2011-02-19T09:48:15Z</time>
      </trkpt>
      <trkpt lat="45.48223" lon="5.82093">
        <ele>704</ele>
        <time>2011-02-19T09:48:34Z</time>
      </trkpt>
      <trkpt lat="45.482" lon="5.82082">
        <ele>707</ele>
        <time>2011-02-19T09:48:53Z</time>
      </trkpt>
      <trkpt lat="45.48179" lon="5.82063">
        <ele>710</ele>
        <time>2011-02-19T09:49:11Z</time>
      </trkpt>
      <trkpt lat="45.48165" lon="5.82046">
        <ele>713</ele>
        <time>2011-02-19T09:49:26Z</time>
      </trkpt>
      <trkpt lat="45.48148" lon="5.8203">
        <ele>716</ele>
        <time>2011-02-19T09:49:42Z</time>
      </trkpt>
      <trkpt lat="45.48131" lon="5.82011">
        <ele>719</ele>
        <time>2011-02-19T09:49:58Z</time>
      </trkpt>
      <trkpt lat="45.48114" lon="5.81994">
        <ele>722</ele>
        <time>2011-02-19T09:50:14Z</time>
      </trkpt>
      <trkpt lat="45.4811" lon="5.8199">
        <ele>723</ele>
        <time>2011-02-19T09:50:18Z</time>
      </trkpt>
      <trkpt lat="45.48086" lon="5.81967">
        <ele>726</ele>
        <time>2011-02-19T09:50:39Z</time>
      </trkpt>
      <trkpt lat="45.48066" lon="5.81948">
        <ele>729</ele>
        <time>2011-02-19T09:50:56Z</time>
      </trkpt>
      <trkpt lat="45.48037" lon="5.81924">
        <ele>731</ele>
        <time>2011-02-19T09:51:17Z</time>
      </trkpt>
      <trkpt lat="45.48047" lon="5.81909">
        <ele>732</ele>
        <time>2011-02-19T09:51:30Z</time>
      </trkpt>
      <trkpt lat="45.48074" lon="5.81935">
        <ele>734</ele>
        <time>2011-02-19T09:51:51Z</time>
      </trkpt>
      <trkpt lat="45.48107" lon="5.81956">
        <ele>736</ele>
        <time>2011-02-19T09:52:13Z</time>
      </trkpt>
      <trkpt lat="45.48121" lon="5.81964">
        <ele>736</ele>
        <time>2011-02-19T09:52:22Z</time>
      </trkpt>
      <trkpt lat="45.48155" lon="5.81967">
        <ele>738</ele>
        <time>2011-02-19T09:52:42Z</time>
      </trkpt>
      <trkpt lat="45.48159" lon="5.81969">
        <ele>738</ele>
        <time>2011-02-19T09:52:45Z</time>
      </trkpt>
      <trkpt lat="45.48197" lon="5.81983">
        <ele>741</ele>
        <time>2011-02-19T09:53:09Z</time>
      </trkpt>
      <trkpt lat="45.48226" lon="5.81989">
        <ele>744</ele>
        <time>2011-02-19T09:53:29Z</time>
      </trkpt>
      <trkpt lat="45.48251" lon="5.81988">
        <ele>747</ele>
        <time>2011-02-19T09:53:47Z</time>
      </trkpt>
      <trkpt lat="45.48273" lon="5.81984">
        <ele>750</ele>
        <time>2011-02-19T09:54:03Z</time>
      </trkpt>
      <trkpt lat="45.48294" lon="5.81977">
        <ele>752</ele>
        <time>2011-02-19T09:54:19Z</time>
      </trkpt>
      <trkpt lat="45.48314" lon="5.81977">
        <ele>755</ele>
        <time>2011-02-19T09:54:34Z</time>
      </trkpt>
      <trkpt lat="45.48339" lon="5.81984">
        <ele>759</ele>
        <time>2011-02-19T09:54:51Z</time>
      </trkpt>
      <trkpt lat="45.4836" lon="5.81994">
        <ele>761</ele>
        <time>2011-02-19T09:55:06Z</time>
      </trkpt>
      <trkpt lat="45.48387" lon="5.82002">
        <ele>764</ele>
        <time>2011-02-19T09:55:24Z</time>
      </trkpt>
      <trkpt lat="45.48406" lon="5.81997">
        <ele>766</ele>
        <time>2011-02-19T09:55:37Z</time>
      </trkpt>
      <trkpt lat="45.48429" lon="5.82015">
        <ele>769</ele>
        <time>2011-02-19T09:55:55Z</time>
      </trkpt>
      <trkpt lat="45.48447" lon="5.82032">
        <ele>773</ele>
        <time>2011-02-19T09:56:08Z</time>
      </trkpt>
      <trkpt lat="45.48477" lon="5.82056">
        <ele>775</ele>
        <time>2011-02-19T09:56:28Z</time>
      </trkpt>
      <trkpt lat="45.48502" lon="5.8207">
        <ele>779</ele>
        <time>2011-02-19T09:56:48Z</time>
      </trkpt>
      <trkpt lat="45.48511" lon="5.82076">
        <ele>779</ele>
        <time>2011-02-19T09:57:05Z</time>
      </trkpt>
      <trkpt lat="45.48537" lon="5.82088">
        <ele>782</ele>
        <time>2011-02-19T09:57:21Z</time>
      </trkpt>
      <trkpt lat="45.48556" lon="5.82099">
        <ele>786</ele>
        <time>2011-02-19T09:57:33Z</time>
      </trkpt>
      <trkpt lat="45.48576" lon="5.82109">
        <ele>788</ele>
        <time>2011-02-19T09:57:52Z</time>
      </trkpt>
      <trkpt lat="45.48598" lon="5.82113">
        <ele>791</ele>
        <time>2011-02-19T09:58:08Z</time>
      </trkpt>
      <trkpt lat="45.48628" lon="5.82124">
        <ele>795</ele>
        <time>2011-02-19T09:58:30Z</time>
      </trkpt>
      <trkpt lat="45.48638" lon="5.82126">
        <ele>797</ele>
        <time>2011-02-19T09:58:37Z</time>
      </trkpt>
      <trkpt lat="45.48664" lon="5.82136">
        <ele>799</ele>
        <time>2011-02-19T09:58:55Z</time>
      </trkpt>
      <trkpt lat="45.48693" lon="5.82147">
        <ele>803</ele>
        <time>2011-02-19T09:59:14Z</time>
      </trkpt>
      <trkpt lat="45.48724" lon="5.82156">
        <ele>805</ele>
        <time>2011-02-19T09:59:35Z</time>
      </trkpt>
      <trkpt lat="45.48752" lon="5.82164">
        <ele>807</ele>
        <time>2011-02-19T09:59:53Z</time>
      </trkpt>
      <trkpt lat="45.48777" lon="5.82162">
        <ele>811</ele>
        <time>2011-02-19T10:00:11Z</time>
      </trkpt>
      <trkpt lat="45.48789" lon="5.82161">
        <ele>811</ele>
        <time>2011-02-19T10:00:19Z</time>
      </trkpt>
      <trkpt lat="45.48823" lon="5.82169">
        <ele>814</ele>
        <time>2011-02-19T10:00:39Z</time>
      </trkpt>
      <trkpt lat="45.48825" lon="5.82169">
        <ele>815</ele>
        <time>2011-02-19T10:00:40Z</time>
      </trkpt>
      <trkpt lat="45.4884" lon="5.82168">
        <ele>816</ele>
        <time>2011-02-19T10:00:51Z</time>
      </trkpt>
      <trkpt lat="45.48862" lon="5.82169">
        <ele>819</ele>
        <time>2011-02-19T10:01:07Z</time>
      </trkpt>
      <trkpt lat="45.48871" lon="5.82169">
        <ele>819</ele>
        <time>2011-02-19T10:01:13Z</time>
      </trkpt>
      <trkpt lat="45.48904" lon="5.82176">
        <ele>823</ele>
        <time>2011-02-19T10:01:34Z</time>
      </trkpt>
      <trkpt lat="45.48908" lon="5.82171">
        <ele>824</ele>
        <time>2011-02-19T10:01:49Z</time>
      </trkpt>
      <trkpt lat="45.4891" lon="5.8217">
        <ele>824</ele>
        <time>2011-02-19T10:02:09Z</time>
      </trkpt>
      <trkpt lat="45.48909" lon="5.8217">
        <ele>823</ele>
        <time>2011-02-19T10:02:31Z</time>
      </trkpt>
      <trkpt lat="45.48909" lon="5.8217">
        <ele>823</ele>
        <time>2011-02-19T10:03:22Z</time>
      </trkpt>
      <trkpt lat="45.48908" lon="5.82169">
        <ele>823</ele>
        <time>2011-02-19T10:03:44Z</time>
      </trkpt>
      <trkpt lat="45.48908" lon="5.82168">
        <ele>823</ele>
        <time>2011-02-19T10:03:45Z</time>
      </trkpt>
      <trkpt lat="45.48899" lon="5.82162">
        <ele>824</ele>
        <time>2011-02-19T10:04:05Z</time>
      </trkpt>
      <trkpt lat="45.48899" lon="5.82161">
        <ele>822</ele>
        <time>2011-02-19T10:09:50Z</time>
      </trkpt>
      <trkpt lat="45.48899" lon="5.82158">
        <ele>823</ele>
        <time>2011-02-19T10:09:55Z</time>
      </trkpt>
      <trkpt lat="45.48881" lon="5.82142">
        <ele>824</ele>
        <time>2011-02-19T10:10:12Z</time>
      </trkpt>
      <trkpt lat="45.48862" lon="5.82122">
        <ele>825</ele>
        <time>2011-02-19T10:10:27Z</time>
      </trkpt>
      <trkpt lat="45.48867" lon="5.82083">
        <ele>825</ele>
        <time>2011-02-19T10:10:41Z</time>
      </trkpt>
      <trkpt lat="45.4888" lon="5.8204">
        <ele>824</ele>
        <time>2011-02-19T10:10:56Z</time>
      </trkpt>
      <trkpt lat="45.4887" lon="5.82007">
        <ele>825</ele>
        <time>2011-02-19T10:11:12Z</time>
      </trkpt>
      <trkpt lat="45.48865" lon="5.82001">
        <ele>825</ele>
        <time>2011-02-19T10:11:16Z</time>
      </trkpt>
      <trkpt lat="45.48862" lon="5.82">
        <ele>826</ele>
        <time>2011-02-19T10:11:18Z</time>
      </trkpt>
      <trkpt lat="45.48841" lon="5.81974">
        <ele>829</ele>
        <time>2011-02-19T10:11:37Z</time>
      </trkpt>
      <trkpt lat="45.4883" lon="5.8194">
        <ele>832</ele>
        <time>2011-02-19T10:11:56Z</time>
      </trkpt>
      <trkpt lat="45.48816" lon="5.81915">
        <ele>835</ele>
        <time>2011-02-19T10:12:12Z</time>
      </trkpt>
      <trkpt lat="45.48791" lon="5.81896">
        <ele>837</ele>
        <time>2011-02-19T10:12:35Z</time>
      </trkpt>
      <trkpt lat="45.48769" lon="5.81878">
        <ele>840</ele>
        <time>2011-02-19T10:12:56Z</time>
      </trkpt>
      <trkpt lat="45.48755" lon="5.81861">
        <ele>842</ele>
        <time>2011-02-19T10:13:12Z</time>
      </trkpt>
      <trkpt lat="45.48736" lon="5.81843">
        <ele>844</ele>
        <time>2011-02-19T10:13:29Z</time>
      </trkpt>
      <trkpt lat="45.48712" lon="5.81824">
        <ele>846</ele>
        <time>2011-02-19T10:13:49Z</time>
      </trkpt>
      <trkpt lat="45.48686" lon="5.81806">
        <ele>849</ele>
        <time>2011-02-19T10:14:11Z</time>
      </trkpt>
      <trkpt lat="45.4868" lon="5.81802">
        <ele>849</ele>
        <time>2011-02-19T10:14:16Z</time>
      </trkpt>
      <trkpt lat="45.48677" lon="5.818">
        <ele>850</ele>
        <time>2011-02-19T10:14:20Z</time>
      </trkpt>
      <trkpt lat="45.48673" lon="5.81801">
        <ele>850</ele>
        <time>2011-02-19T10:14:23Z</time>
      </trkpt>
      <trkpt lat="45.4867" lon="5.818">
        <ele>851</ele>
        <time>2011-02-19T10:14:26Z</time>
      </trkpt>
      <trkpt lat="45.48663" lon="5.81799">
        <ele>852</ele>
        <time>2011-02-19T10:14:33Z</time>
      </trkpt>
      <trkpt lat="45.48633" lon="5.81788">
        <ele>855</ele>
        <time>2011-02-19T10:14:56Z</time>
      </trkpt>
      <trkpt lat="45.4861" lon="5.81771">
        <ele>858</ele>
        <time>2011-02-19T10:15:19Z</time>
      </trkpt>
      <trkpt lat="45.48584" lon="5.81751">
        <ele>861</ele>
        <time>2011-02-19T10:15:45Z</time>
      </trkpt>
      <trkpt lat="45.48561" lon="5.81734">
        <ele>864</ele>
        <time>2011-02-19T10:16:09Z</time>
      </trkpt>
      <trkpt lat="45.48543" lon="5.81719">
        <ele>867</ele>
        <time>2011-02-19T10:16:30Z</time>
      </trkpt>
      <trkpt lat="45.48534" lon="5.81711">
        <ele>868</ele>
        <time>2011-02-19T10:16:40Z</time>
      </trkpt>
      <trkpt lat="45.48516" lon="5.81694">
        <ele>871</ele>
        <time>2011-02-19T10:16:59Z</time>
      </trkpt>
      <trkpt lat="45.48501" lon="5.8168">
        <ele>873</ele>
        <time>2011-02-19T10:17:15Z</time>
      </trkpt>
      <trkpt lat="45.48483" lon="5.81673">
        <ele>875</ele>
        <time>2011-02-19T10:17:29Z</time>
      </trkpt>
      <trkpt lat="45.48459" lon="5.81671">
        <ele>878</ele>
        <time>2011-02-19T10:17:49Z</time>
      </trkpt>
      <trkpt lat="45.48454" lon="5.81669">
        <ele>879</ele>
        <time>2011-02-19T10:17:53Z</time>
      </trkpt>
      <trkpt lat="45.48429" lon="5.81647">
        <ele>882</ele>
        <time>2011-02-19T10:18:17Z</time>
      </trkpt>
      <trkpt lat="45.48403" lon="5.81626">
        <ele>885</ele>
        <time>2011-02-19T10:18:41Z</time>
      </trkpt>
      <trkpt lat="45.48401" lon="5.81624">
        <ele>886</ele>
        <time>2011-02-19T10:18:43Z</time>
      </trkpt>
      <trkpt lat="45.48383" lon="5.81611">
        <ele>889</ele>
        <time>2011-02-19T10:19:01Z</time>
      </trkpt>
      <trkpt lat="45.48369" lon="5.81592">
        <ele>892</ele>
        <time>2011-02-19T10:19:20Z</time>
      </trkpt>
      <trkpt lat="45.48361" lon="5.81573">
        <ele>895</ele>
        <time>2011-02-19T10:19:34Z</time>
      </trkpt>
      <trkpt lat="45.48343" lon="5.81549">
        <ele>898</ele>
        <time>2011-02-19T10:19:55Z</time>
      </trkpt>
      <trkpt lat="45.48324" lon="5.81554">
        <ele>899</ele>
        <time>2011-02-19T10:20:11Z</time>
      </trkpt>
      <trkpt lat="45.48292" lon="5.81569">
        <ele>902</ele>
        <time>2011-02-19T10:20:36Z</time>
      </trkpt>
      <trkpt lat="45.48256" lon="5.81555">
        <ele>904</ele>
        <time>2011-02-19T10:21:01Z</time>
      </trkpt>
      <trkpt lat="45.48236" lon="5.81539">
        <ele>908</ele>
        <time>2011-02-19T10:21:19Z</time>
      </trkpt>
      <trkpt lat="45.48215" lon="5.81519">
        <ele>911</ele>
        <time>2011-02-19T10:21:39Z</time>
      </trkpt>
      <trkpt lat="45.48212" lon="5.81516">
        <ele>911</ele>
        <time>2011-02-19T10:21:42Z</time>
      </trkpt>
      <trkpt lat="45.48189" lon="5.81492">
        <ele>914</ele>
        <time>2011-02-19T10:22:04Z</time>
      </trkpt>
      <trkpt lat="45.48164" lon="5.81467">
        <ele>917</ele>
        <time>2011-02-19T10:22:27Z</time>
      </trkpt>
      <trkpt lat="45.48156" lon="5.81456">
        <ele>918</ele>
        <time>2011-02-19T10:22:35Z</time>
      </trkpt>
      <trkpt lat="45.48137" lon="5.81429">
        <ele>921</ele>
        <time>2011-02-19T10:22:56Z</time>
      </trkpt>
      <trkpt lat="45.48115" lon="5.81401">
        <ele>924</ele>
        <time>2011-02-19T10:23:18Z</time>
      </trkpt>
      <trkpt lat="45.48099" lon="5.81365">
        <ele>926</ele>
        <time>2011-02-19T10:23:40Z</time>
      </trkpt>
      <trkpt lat="45.48078" lon="5.81341">
        <ele>930</ele>
        <time>2011-02-19T10:24:02Z</time>
      </trkpt>
      <trkpt lat="45.48063" lon="5.81318">
        <ele>933</ele>
        <time>2011-02-19T10:24:21Z</time>
      </trkpt>
      <trkpt lat="45.48054" lon="5.8128">
        <ele>935</ele>
        <time>2011-02-19T10:24:42Z</time>
      </trkpt>
      <trkpt lat="45.48073" lon="5.81264">
        <ele>935</ele>
        <time>2011-02-19T10:24:56Z</time>
      </trkpt>
      <trkpt lat="45.48101" lon="5.81249">
        <ele>937</ele>
        <time>2011-02-19T10:25:14Z</time>
      </trkpt>
      <trkpt lat="45.48107" lon="5.81246">
        <ele>937</ele>
        <time>2011-02-19T10:25:18Z</time>
      </trkpt>
      <trkpt lat="45.48143" lon="5.81237">
        <ele>939</ele>
        <time>2011-02-19T10:25:43Z</time>
      </trkpt>
      <trkpt lat="45.48154" lon="5.81229">
        <ele>941</ele>
        <time>2011-02-19T10:25:58Z</time>
      </trkpt>
      <trkpt lat="45.48156" lon="5.8123">
        <ele>941</ele>
        <time>2011-02-19T10:27:11Z</time>
      </trkpt>
      <trkpt lat="45.48156" lon="5.81231">
        <ele>942</ele>
        <time>2011-02-19T10:27:36Z</time>
      </trkpt>
      <trkpt lat="45.48179" lon="5.81233">
        <ele>945</ele>
        <time>2011-02-19T10:27:53Z</time>
      </trkpt>
      <trkpt lat="45.48207" lon="5.81237">
        <ele>948</ele>
        <time>2011-02-19T10:28:11Z</time>
      </trkpt>
      <trkpt lat="45.48218" lon="5.81234">
        <ele>948</ele>
        <time>2011-02-19T10:28:18Z</time>
      </trkpt>
      <trkpt lat="45.48246" lon="5.81221">
        <ele>951</ele>
        <time>2011-02-19T10:28:38Z</time>
      </trkpt>
      <trkpt lat="45.48254" lon="5.81216">
        <ele>952</ele>
        <time>2011-02-19T10:28:44Z</time>
      </trkpt>
      <trkpt lat="45.48262" lon="5.81215">
        <ele>953</ele>
        <time>2011-02-19T10:28:49Z</time>
      </trkpt>
      <trkpt lat="45.48266" lon="5.81212">
        <ele>954</ele>
        <time>2011-02-19T10:28:52Z</time>
      </trkpt>
      <trkpt lat="45.4829" lon="5.812">
        <ele>957</ele>
        <time>2011-02-19T10:29:11Z</time>
      </trkpt>
      <trkpt lat="45.48321" lon="5.81188">
        <ele>959</ele>
        <time>2011-02-19T10:29:33Z</time>
      </trkpt>
      <trkpt lat="45.48343" lon="5.81189">
        <ele>960</ele>
        <time>2011-02-19T10:29:50Z</time>
      </trkpt>
      <trkpt lat="45.48367" lon="5.81192">
        <ele>962</ele>
        <time>2011-02-19T10:30:11Z</time>
      </trkpt>
      <trkpt lat="45.48382" lon="5.81194">
        <ele>964</ele>
        <time>2011-02-19T10:30:26Z</time>
      </trkpt>
      <trkpt lat="45.48395" lon="5.81196">
        <ele>966</ele>
        <time>2011-02-19T10:30:37Z</time>
      </trkpt>
      <trkpt lat="45.48412" lon="5.81219">
        <ele>969</ele>
        <time>2011-02-19T10:31:00Z</time>
      </trkpt>
      <trkpt lat="45.48427" lon="5.81236">
        <ele>972</ele>
        <time>2011-02-19T10:31:21Z</time>
      </trkpt>
      <trkpt lat="45.48433" lon="5.81239">
        <ele>973</ele>
        <time>2011-02-19T10:31:29Z</time>
      </trkpt>
      <trkpt lat="45.48436" lon="5.8124">
        <ele>973</ele>
        <time>2011-02-19T10:31:32Z</time>
      </trkpt>
      <trkpt lat="45.48438" lon="5.8124">
        <ele>973</ele>
        <time>2011-02-19T10:31:35Z</time>
      </trkpt>
      <trkpt lat="45.48463" lon="5.81245">
        <ele>975</ele>
        <time>2011-02-19T10:31:57Z</time>
      </trkpt>
      <trkpt lat="45.48469" lon="5.81245">
        <ele>976</ele>
        <time>2011-02-19T10:32:02Z</time>
      </trkpt>
      <trkpt lat="45.48492" lon="5.81242">
        <ele>978</ele>
        <time>2011-02-19T10:32:24Z</time>
      </trkpt>
      <trkpt lat="45.48517" lon="5.81241">
        <ele>981</ele>
        <time>2011-02-19T10:32:48Z</time>
      </trkpt>
      <trkpt lat="45.48541" lon="5.81248">
        <ele>984</ele>
        <time>2011-02-19T10:33:11Z</time>
      </trkpt>
      <trkpt lat="45.48565" lon="5.81254">
        <ele>985</ele>
        <time>2011-02-19T10:33:31Z</time>
      </trkpt>
      <trkpt lat="45.48582" lon="5.8126">
        <ele>986</ele>
        <time>2011-02-19T10:33:46Z</time>
      </trkpt>
      <trkpt lat="45.48589" lon="5.81263">
        <ele>986</ele>
        <time>2011-02-19T10:33:53Z</time>
      </trkpt>
      <trkpt lat="45.48608" lon="5.81267">
        <ele>986</ele>
        <time>2011-02-19T10:34:10Z</time>
      </trkpt>
      <trkpt lat="45.48642" lon="5.81277">
        <ele>989</ele>
        <time>2011-02-19T10:34:36Z</time>
      </trkpt>
      <trkpt lat="45.48669" lon="5.81285">
        <ele>991</ele>
        <time>2011-02-19T10:34:56Z</time>
      </trkpt>
      <trkpt lat="45.48694" lon="5.8129">
        <ele>995</ele>
        <time>2011-02-19T10:35:17Z</time>
      </trkpt>
      <trkpt lat="45.48724" lon="5.81295">
        <ele>998</ele>
        <time>2011-02-19T10:35:42Z</time>
      </trkpt>
      <trkpt lat="45.48742" lon="5.81298">
        <ele>999</ele>
        <time>2011-02-19T10:35:58Z</time>
      </trkpt>
      <trkpt lat="45.48753" lon="5.81303">
        <ele>1001</ele>
        <time>2011-02-19T10:36:08Z</time>
      </trkpt>
      <trkpt lat="45.48779" lon="5.81312">
        <ele>1003</ele>
        <time>2011-02-19T10:36:29Z</time>
      </trkpt>
      <trkpt lat="45.48795" lon="5.8132">
        <ele>1005</ele>
        <time>2011-02-19T10:36:42Z</time>
      </trkpt>
      <trkpt lat="45.48821" lon="5.81327">
        <ele>1007</ele>
        <time>2011-02-19T10:37:05Z</time>
      </trkpt>
      <trkpt lat="45.48849" lon="5.81337">
        <ele>1010</ele>
        <time>2011-02-19T10:37:30Z</time>
      </trkpt>
      <trkpt lat="45.48874" lon="5.81343">
        <ele>1012</ele>
        <time>2011-02-19T10:37:50Z</time>
      </trkpt>
      <trkpt lat="45.489" lon="5.81346">
        <ele>1016</ele>
        <time>2011-02-19T10:38:12Z</time>
      </trkpt>
      <trkpt lat="45.48923" lon="5.81351">
        <ele>1018</ele>
        <time>2011-02-19T10:38:33Z</time>
      </trkpt>
      <trkpt lat="45.4893" lon="5.81353">
        <ele>1020</ele>
        <time>2011-02-19T10:38:40Z</time>
      </trkpt>
      <trkpt lat="45.48953" lon="5.81361">
        <ele>1023</ele>
        <time>2011-02-19T10:38:59Z</time>
      </trkpt>
      <trkpt lat="45.4898" lon="5.81383">
        <ele>1026</ele>
        <time>2011-02-19T10:39:24Z</time>
      </trkpt>
      <trkpt lat="45.48995" lon="5.81394">
        <ele>1026</ele>
        <time>2011-02-19T10:39:38Z</time>
      </trkpt>
      <trkpt lat="45.49006" lon="5.81396">
        <ele>1027</ele>
        <time>2011-02-19T10:39:52Z</time>
      </trkpt>
      <trkpt lat="45.49014" lon="5.81399">
        <ele>1026</ele>
        <time>2011-02-19T10:43:19Z</time>
      </trkpt>
      <trkpt lat="45.49015" lon="5.81399">
        <ele>1026</ele>
        <time>2011-02-19T10:43:20Z</time>
      </trkpt>
      <trkpt lat="45.49025" lon="5.814">
        <ele>1027</ele>
        <time>2011-02-19T10:43:29Z</time>
      </trkpt>
      <trkpt lat="45.49052" lon="5.81403">
        <ele>1029</ele>
        <time>2011-02-19T10:43:51Z</time>
      </trkpt>
      <trkpt lat="45.49074" lon="5.81414">
        <ele>1031</ele>
        <time>2011-02-19T10:44:12Z</time>
      </trkpt>
      <trkpt lat="45.49099" lon="5.81424">
        <ele>1034</ele>
        <time>2011-02-19T10:44:33Z</time>
      </trkpt>
      <trkpt lat="45.49115" lon="5.81428">
        <ele>1035</ele>
        <time>2011-02-19T10:44:48Z</time>
      </trkpt>
      <trkpt lat="45.4914" lon="5.81443">
        <ele>1039</ele>
        <time>2011-02-19T10:45:09Z</time>
      </trkpt>
      <trkpt lat="45.49155" lon="5.81461">
        <ele>1040</ele>
        <time>2011-02-19T10:45:25Z</time>
      </trkpt>
      <trkpt lat="45.49182" lon="5.81481">
        <ele>1043</ele>
        <time>2011-02-19T10:45:49Z</time>
      </trkpt>
      <trkpt lat="45.49211" lon="5.81498">
        <ele>1044</ele>
        <time>2011-02-19T10:46:14Z</time>
      </trkpt>
      <trkpt lat="45.49239" lon="5.8151">
        <ele>1045</ele>
        <time>2011-02-19T10:46:39Z</time>
      </trkpt>
      <trkpt lat="45.49273" lon="5.81525">
        <ele>1047</ele>
        <time>2011-02-19T10:47:08Z</time>
      </trkpt>
      <trkpt lat="45.49301" lon="5.81533">
        <ele>1049</ele>
        <time>2011-02-19T10:47:30Z</time>
      </trkpt>
      <trkpt lat="45.49324" lon="5.81546">
        <ele>1052</ele>
        <time>2011-02-19T10:47:51Z</time>
      </trkpt>
      <trkpt lat="45.49346" lon="5.81554">
        <ele>1055</ele>
        <time>2011-02-19T10:48:10Z</time>
      </trkpt>
      <trkpt lat="45.49368" lon="5.8156">
        <ele>1058</ele>
        <time>2011-02-19T10:48:28Z</time>
      </trkpt>
      <trkpt lat="45.49393" lon="5.8156">
        <ele>1060</ele>
        <time>2011-02-19T10:48:48Z</time>
      </trkpt>
      <trkpt lat="45.49397" lon="5.81559">
        <ele>1061</ele>
        <time>2011-02-19T10:48:51Z</time>
      </trkpt>
      <trkpt lat="45.49419" lon="5.81555">
        <ele>1064</ele>
        <time>2011-02-19T10:49:11Z</time>
      </trkpt>
      <trkpt lat="45.49421" lon="5.81553">
        <ele>1064</ele>
        <time>2011-02-19T10:49:13Z</time>
      </trkpt>
      <trkpt lat="45.4943" lon="5.81516">
        <ele>1068</ele>
        <time>2011-02-19T10:49:35Z</time>
      </trkpt>
      <trkpt lat="45.4943" lon="5.81513">
        <ele>1068</ele>
        <time>2011-02-19T10:49:37Z</time>
      </trkpt>
      <trkpt lat="45.49437" lon="5.81488">
        <ele>1070</ele>
        <time>2011-02-19T10:49:52Z</time>
      </trkpt>
      <trkpt lat="45.49439" lon="5.81485">
        <ele>1070</ele>
        <time>2011-02-19T10:49:54Z</time>
      </trkpt>
      <trkpt lat="45.4946" lon="5.81467">
        <ele>1073</ele>
        <time>2011-02-19T10:50:15Z</time>
      </trkpt>
      <trkpt lat="45.4947" lon="5.81449">
        <ele>1075</ele>
        <time>2011-02-19T10:50:29Z</time>
      </trkpt>
      <trkpt lat="45.49469" lon="5.8142">
        <ele>1078</ele>
        <time>2011-02-19T10:50:46Z</time>
      </trkpt>
      <trkpt lat="45.49451" lon="5.81386">
        <ele>1079</ele>
        <time>2011-02-19T10:51:07Z</time>
      </trkpt>
      <trkpt lat="45.49463" lon="5.81344">
        <ele>1080</ele>
        <time>2011-02-19T10:51:23Z</time>
      </trkpt>
      <trkpt lat="45.49465" lon="5.81342">
        <ele>1081</ele>
        <time>2011-02-19T10:51:33Z</time>
      </trkpt>
      <trkpt lat="45.49464" lon="5.81341">
        <ele>1080</ele>
        <time>2011-02-19T10:51:49Z</time>
      </trkpt>
      <trkpt lat="45.49465" lon="5.81341">
        <ele>1080</ele>
        <time>2011-02-19T10:52:19Z</time>
      </trkpt>
      <trkpt lat="45.49466" lon="5.81347">
        <ele>1080</ele>
        <time>2011-02-19T10:52:36Z</time>
      </trkpt>
      <trkpt lat="45.49463" lon="5.81349">
        <ele>1079</ele>
        <time>2011-02-19T10:53:02Z</time>
      </trkpt>
      <trkpt lat="45.49463" lon="5.81344">
        <ele>1080</ele>
        <time>2011-02-19T10:53:36Z</time>
      </trkpt>
      <trkpt lat="45.49476" lon="5.81307">
        <ele>1081</ele>
        <time>2011-02-19T10:53:51Z</time>
      </trkpt>
      <trkpt lat="45.49494" lon="5.81268">
        <ele>1082</ele>
        <time>2011-02-19T10:54:08Z</time>
      </trkpt>
      <trkpt lat="45.49526" lon="5.8123">
        <ele>1083</ele>
        <time>2011-02-19T10:54:27Z</time>
      </trkpt>
      <trkpt lat="45.49565" lon="5.81231">
        <ele>1083</ele>
        <time>2011-02-19T10:54:43Z</time>
      </trkpt>
      <trkpt lat="45.49591" lon="5.81196">
        <ele>1085</ele>
        <time>2011-02-19T10:54:58Z</time>
      </trkpt>
      <trkpt lat="45.49611" lon="5.8116">
        <ele>1087</ele>
        <time>2011-02-19T10:55:12Z</time>
      </trkpt>
      <trkpt lat="45.49633" lon="5.81146">
        <ele>1090</ele>
        <time>2011-02-19T10:55:27Z</time>
      </trkpt>
      <trkpt lat="45.49645" lon="5.8115">
        <ele>1091</ele>
        <time>2011-02-19T10:55:33Z</time>
      </trkpt>
      <trkpt lat="45.49653" lon="5.81155">
        <ele>1091</ele>
        <time>2011-02-19T10:55:37Z</time>
      </trkpt>
      <trkpt lat="45.497" lon="5.81167">
        <ele>1093</ele>
        <time>2011-02-19T10:55:56Z</time>
      </trkpt>
      <trkpt lat="45.49731" lon="5.81163">
        <ele>1094</ele>
        <time>2011-02-19T10:56:09Z</time>
      </trkpt>
      <trkpt lat="45.4975" lon="5.81146">
        <ele>1094</ele>
        <time>2011-02-19T10:56:19Z</time>
      </trkpt>
      <trkpt lat="45.49756" lon="5.81144">
        <ele>1094</ele>
        <time>2011-02-19T10:56:23Z</time>
      </trkpt>
      <trkpt lat="45.49793" lon="5.81154">
        <ele>1094</ele>
        <time>2011-02-19T10:56:44Z</time>
      </trkpt>
      <trkpt lat="45.49827" lon="5.812">
        <ele>1097</ele>
        <time>2011-02-19T10:57:04Z</time>
      </trkpt>
      <trkpt lat="45.49859" lon="5.81244">
        <ele>1100</ele>
        <time>2011-02-19T10:57:25Z</time>
      </trkpt>
      <trkpt lat="45.49885" lon="5.81288">
        <ele>1103</ele>
        <time>2011-02-19T10:57:44Z</time>
      </trkpt>
      <trkpt lat="45.49906" lon="5.81325">
        <ele>1105</ele>
        <time>2011-02-19T10:57:59Z</time>
      </trkpt>
      <trkpt lat="45.49935" lon="5.81347">
        <ele>1107</ele>
        <time>2011-02-19T10:58:15Z</time>
      </trkpt>
      <trkpt lat="45.49981" lon="5.81362">
        <ele>1109</ele>
        <time>2011-02-19T10:58:34Z</time>
      </trkpt>
      <trkpt lat="45.50024" lon="5.81371">
        <ele>1113</ele>
        <time>2011-02-19T10:58:51Z</time>
      </trkpt>
      <trkpt lat="45.50065" lon="5.8137">
        <ele>1116</ele>
        <time>2011-02-19T10:59:08Z</time>
      </trkpt>
      <trkpt lat="45.50075" lon="5.81367">
        <ele>1116</ele>
        <time>2011-02-19T10:59:13Z</time>
      </trkpt>
      <trkpt lat="45.50109" lon="5.81366">
        <ele>1118</ele>
        <time>2011-02-19T10:59:29Z</time>
      </trkpt>
      <trkpt lat="45.50141" lon="5.81383">
        <ele>1121</ele>
        <time>2011-02-19T10:59:46Z</time>
      </trkpt>
      <trkpt lat="45.50167" lon="5.81391">
        <ele>1123</ele>
        <time>2011-02-19T10:59:59Z</time>
      </trkpt>
      <trkpt lat="45.50198" lon="5.81386">
        <ele>1126</ele>
        <time>2011-02-19T11:00:13Z</time>
      </trkpt>
      <trkpt lat="45.5023" lon="5.81381">
        <ele>1130</ele>
        <time>2011-02-19T11:00:26Z</time>
      </trkpt>
      <trkpt lat="45.50264" lon="5.81393">
        <ele>1133</ele>
        <time>2011-02-19T11:00:42Z</time>
      </trkpt>
      <trkpt lat="45.50303" lon="5.81399">
        <ele>1136</ele>
        <time>2011-02-19T11:00:59Z</time>
      </trkpt>
      <trkpt lat="45.50338" lon="5.81414">
        <ele>1139</ele>
        <time>2011-02-19T11:01:15Z</time>
      </trkpt>
      <trkpt lat="45.50344" lon="5.81423">
        <ele>1140</ele>
        <time>2011-02-19T11:01:19Z</time>
      </trkpt>
      <trkpt lat="45.50345" lon="5.8143">
        <ele>1140</ele>
        <time>2011-02-19T11:01:21Z</time>
      </trkpt>
      <trkpt lat="45.50362" lon="5.81472">
        <ele>1144</ele>
        <time>2011-02-19T11:01:36Z</time>
      </trkpt>
      <trkpt lat="45.50382" lon="5.8151">
        <ele>1147</ele>
        <time>2011-02-19T11:01:49Z</time>
      </trkpt>
      <trkpt lat="45.50417" lon="5.81542">
        <ele>1149</ele>
        <time>2011-02-19T11:02:06Z</time>
      </trkpt>
      <trkpt lat="45.50451" lon="5.81564">
        <ele>1153</ele>
        <time>2011-02-19T11:02:22Z</time>
      </trkpt>
      <trkpt lat="45.50479" lon="5.81564">
        <ele>1156</ele>
        <time>2011-02-19T11:02:35Z</time>
      </trkpt>
      <trkpt lat="45.50502" lon="5.81576">
        <ele>1159</ele>
        <time>2011-02-19T11:02:46Z</time>
      </trkpt>
      <trkpt lat="45.50525" lon="5.81587">
        <ele>1162</ele>
        <time>2011-02-19T11:02:57Z</time>
      </trkpt>
      <trkpt lat="45.50553" lon="5.81604">
        <ele>1165</ele>
        <time>2011-02-19T11:03:12Z</time>
      </trkpt>
      <trkpt lat="45.50556" lon="5.81608">
        <ele>1165</ele>
        <time>2011-02-19T11:03:14Z</time>
      </trkpt>
      <trkpt lat="45.50563" lon="5.81604">
        <ele>1166</ele>
        <time>2011-02-19T11:03:23Z</time>
      </trkpt>
      <trkpt lat="45.5056" lon="5.81604">
        <ele>1166</ele>
        <time>2011-02-19T11:03:39Z</time>
      </trkpt>
      <trkpt lat="45.5056" lon="5.81603">
        <ele>1166</ele>
        <time>2011-02-19T11:09:17Z</time>
      </trkpt>
      <trkpt lat="45.5056" lon="5.81595">
        <ele>1167</ele>
        <time>2011-02-19T11:09:32Z</time>
      </trkpt>
      <trkpt lat="45.5056" lon="5.81595">
        <ele>1167</ele>
        <time>2011-02-19T11:10:03Z</time>
      </trkpt>
      <trkpt lat="45.5056" lon="5.81595">
        <ele>1167</ele>
        <time>2011-02-19T11:11:53Z</time>
      </trkpt>
      <trkpt lat="45.50538" lon="5.81574">
        <ele>1170</ele>
        <time>2011-02-19T11:12:13Z</time>
      </trkpt>
      <trkpt lat="45.50518" lon="5.81552">
        <ele>1172</ele>
        <time>2011-02-19T11:12:32Z</time>
      </trkpt>
      <trkpt lat="45.50499" lon="5.81528">
        <ele>1175</ele>
        <time>2011-02-19T11:12:50Z</time>
      </trkpt>
      <trkpt lat="45.50496" lon="5.81524">
        <ele>1176</ele>
        <time>2011-02-19T11:12:53Z</time>
      </trkpt>
      <trkpt lat="45.5048" lon="5.81499">
        <ele>1179</ele>
        <time>2011-02-19T11:13:11Z</time>
      </trkpt>
      <trkpt lat="45.50463" lon="5.81479">
        <ele>1182</ele>
        <time>2011-02-19T11:13:28Z</time>
      </trkpt>
      <trkpt lat="45.50448" lon="5.8145">
        <ele>1185</ele>
        <time>2011-02-19T11:13:45Z</time>
      </trkpt>
      <trkpt lat="45.5043" lon="5.81418">
        <ele>1189</ele>
        <time>2011-02-19T11:14:06Z</time>
      </trkpt>
      <trkpt lat="45.50423" lon="5.81393">
        <ele>1192</ele>
        <time>2011-02-19T11:14:20Z</time>
      </trkpt>
      <trkpt lat="45.50418" lon="5.81356">
        <ele>1195</ele>
        <time>2011-02-19T11:14:39Z</time>
      </trkpt>
      <trkpt lat="45.50406" lon="5.81335">
        <ele>1198</ele>
        <time>2011-02-19T11:14:53Z</time>
      </trkpt>
      <trkpt lat="45.50397" lon="5.81311">
        <ele>1201</ele>
        <time>2011-02-19T11:15:09Z</time>
      </trkpt>
      <trkpt lat="45.50396" lon="5.81279">
        <ele>1204</ele>
        <time>2011-02-19T11:15:27Z</time>
      </trkpt>
      <trkpt lat="45.50396" lon="5.81268">
        <ele>1205</ele>
        <time>2011-02-19T11:15:33Z</time>
      </trkpt>
      <trkpt lat="45.50398" lon="5.8126">
        <ele>1206</ele>
        <time>2011-02-19T11:15:38Z</time>
      </trkpt>
      <trkpt lat="45.50395" lon="5.81239">
        <ele>1209</ele>
        <time>2011-02-19T11:15:50Z</time>
      </trkpt>
      <trkpt lat="45.50394" lon="5.81237">
        <ele>1209</ele>
        <time>2011-02-19T11:15:52Z</time>
      </trkpt>
      <trkpt lat="45.50383" lon="5.81226">
        <ele>1210</ele>
        <time>2011-02-19T11:16:03Z</time>
      </trkpt>
      <trkpt lat="45.50362" lon="5.81216">
        <ele>1213</ele>
        <time>2011-02-19T11:16:21Z</time>
      </trkpt>
      <trkpt lat="45.50346" lon="5.81205">
        <ele>1217</ele>
        <time>2011-02-19T11:16:35Z</time>
      </trkpt>
      <trkpt lat="45.5033" lon="5.81187">
        <ele>1220</ele>
        <time>2011-02-19T11:16:51Z</time>
      </trkpt>
      <trkpt lat="45.50313" lon="5.81169">
        <ele>1223</ele>
        <time>2011-02-19T11:17:08Z</time>
      </trkpt>
      <trkpt lat="45.50289" lon="5.8115">
        <ele>1226</ele>
        <time>2011-02-19T11:17:27Z</time>
      </trkpt>
      <trkpt lat="45.50273" lon="5.8114">
        <ele>1229</ele>
        <time>2011-02-19T11:17:47Z</time>
      </trkpt>
      <trkpt lat="45.50272" lon="5.81141">
        <ele>1229</ele>
        <time>2011-02-19T11:19:32Z</time>
      </trkpt>
      <trkpt lat="45.50271" lon="5.81142">
        <ele>1229</ele>
        <time>2011-02-19T11:20:00Z</time>
      </trkpt>
      <trkpt lat="45.50256" lon="5.8113">
        <ele>1233</ele>
        <time>2011-02-19T11:20:13Z</time>
      </trkpt>
      <trkpt lat="45.50237" lon="5.8111">
        <ele>1235</ele>
        <time>2011-02-19T11:20:30Z</time>
      </trkpt>
      <trkpt lat="45.50208" lon="5.81077">
        <ele>1237</ele>
        <time>2011-02-19T11:20:55Z</time>
      </trkpt>
      <trkpt lat="45.50183" lon="5.81054">
        <ele>1239</ele>
        <time>2011-02-19T11:21:14Z</time>
      </trkpt>
      <trkpt lat="45.50165" lon="5.81043">
        <ele>1240</ele>
        <time>2011-02-19T11:21:28Z</time>
      </trkpt>
      <trkpt lat="45.50152" lon="5.81032">
        <ele>1241</ele>
        <time>2011-02-19T11:21:41Z</time>
      </trkpt>
      <trkpt lat="45.50152" lon="5.81033">
        <ele>1240</ele>
        <time>2011-02-19T11:22:51Z</time>
      </trkpt>
      <trkpt lat="45.50153" lon="5.81033">
        <ele>1240</ele>
        <time>2011-02-19T11:23:18Z</time>
      </trkpt>
      <trkpt lat="45.50149" lon="5.81029">
        <ele>1241</ele>
        <time>2011-02-19T11:23:28Z</time>
      </trkpt>
      <trkpt lat="45.50138" lon="5.81019">
        <ele>1240</ele>
        <time>2011-02-19T11:24:00Z</time>
      </trkpt>
      <trkpt lat="45.50119" lon="5.8099">
        <ele>1242</ele>
        <time>2011-02-19T11:24:22Z</time>
      </trkpt>
      <trkpt lat="45.50088" lon="5.80955">
        <ele>1241</ele>
        <time>2011-02-19T11:24:45Z</time>
      </trkpt>
      <trkpt lat="45.50069" lon="5.80923">
        <ele>1241</ele>
        <time>2011-02-19T11:25:03Z</time>
      </trkpt>
      <trkpt lat="45.50067" lon="5.8089">
        <ele>1244</ele>
        <time>2011-02-19T11:25:19Z</time>
      </trkpt>
      <trkpt lat="45.50059" lon="5.80859">
        <ele>1247</ele>
        <time>2011-02-19T11:25:37Z</time>
      </trkpt>
      <trkpt lat="45.50057" lon="5.80844">
        <ele>1247</ele>
        <time>2011-02-19T11:25:56Z</time>
      </trkpt>
      <trkpt lat="45.50057" lon="5.80844">
        <ele>1247</ele>
        <time>2011-02-19T11:25:58Z</time>
      </trkpt>
      <trkpt lat="45.50049" lon="5.80821">
        <ele>1246</ele>
        <time>2011-02-19T11:26:07Z</time>
      </trkpt>
      <trkpt lat="45.50055" lon="5.80784">
        <ele>1246</ele>
        <time>2011-02-19T11:26:23Z</time>
      </trkpt>
      <trkpt lat="45.50066" lon="5.80748">
        <ele>1245</ele>
        <time>2011-02-19T11:26:41Z</time>
      </trkpt>
      <trkpt lat="45.50072" lon="5.80711">
        <ele>1247</ele>
        <time>2011-02-19T11:27:01Z</time>
      </trkpt>
      <trkpt lat="45.50072" lon="5.80661">
        <ele>1249</ele>
        <time>2011-02-19T11:27:27Z</time>
      </trkpt>
      <trkpt lat="45.50073" lon="5.80652">
        <ele>1250</ele>
        <time>2011-02-19T11:27:43Z</time>
      </trkpt>
      <trkpt lat="45.50075" lon="5.80653">
        <ele>1249</ele>
        <time>2011-02-19T11:28:11Z</time>
      </trkpt>
      <trkpt lat="45.50077" lon="5.80645">
        <ele>1251</ele>
        <time>2011-02-19T11:28:25Z</time>
      </trkpt>
      <trkpt lat="45.50082" lon="5.80634">
        <ele>1254</ele>
        <time>2011-02-19T11:28:39Z</time>
      </trkpt>
      <trkpt lat="45.50086" lon="5.8062">
        <ele>1257</ele>
        <time>2011-02-19T11:28:57Z</time>
      </trkpt>
      <trkpt lat="45.50092" lon="5.80607">
        <ele>1260</ele>
        <time>2011-02-19T11:29:14Z</time>
      </trkpt>
      <trkpt lat="45.50096" lon="5.806">
        <ele>1261</ele>
        <time>2011-02-19T11:29:29Z</time>
      </trkpt>
      <trkpt lat="45.50105" lon="5.806">
        <ele>1264</ele>
        <time>2011-02-19T11:29:38Z</time>
      </trkpt>
      <trkpt lat="45.5011" lon="5.80589">
        <ele>1266</ele>
        <time>2011-02-19T11:29:46Z</time>
      </trkpt>
      <trkpt lat="45.50116" lon="5.80586">
        <ele>1268</ele>
        <time>2011-02-19T11:29:52Z</time>
      </trkpt>
      <trkpt lat="45.50126" lon="5.80581">
        <ele>1270</ele>
        <time>2011-02-19T11:30:07Z</time>
      </trkpt>
      <trkpt lat="45.50133" lon="5.80576">
        <ele>1273</ele>
        <time>2011-02-19T11:30:21Z</time>
      </trkpt>
      <trkpt lat="45.50141" lon="5.80574">
        <ele>1276</ele>
        <time>2011-02-19T11:30:39Z</time>
      </trkpt>
      <trkpt lat="45.5015" lon="5.80572">
        <ele>1278</ele>
        <time>2011-02-19T11:30:58Z</time>
      </trkpt>
      <trkpt lat="45.5016" lon="5.80573">
        <ele>1281</ele>
        <time>2011-02-19T11:31:17Z</time>
      </trkpt>
      <trkpt lat="45.50163" lon="5.80573">
        <ele>1281</ele>
        <time>2011-02-19T11:31:42Z</time>
      </trkpt>
      <trkpt lat="45.50166" lon="5.80566">
        <ele>1282</ele>
        <time>2011-02-19T11:33:46Z</time>
      </trkpt>
      <trkpt lat="45.50173" lon="5.80552">
        <ele>1285</ele>
        <time>2011-02-19T11:34:03Z</time>
      </trkpt>
      <trkpt lat="45.50182" lon="5.8054">
        <ele>1288</ele>
        <time>2011-02-19T11:34:20Z</time>
      </trkpt>
      <trkpt lat="45.50187" lon="5.80523">
        <ele>1291</ele>
        <time>2011-02-19T11:34:39Z</time>
      </trkpt>
      <trkpt lat="45.5019" lon="5.80515">
        <ele>1293</ele>
        <time>2011-02-19T11:34:56Z</time>
      </trkpt>
      <trkpt lat="45.50193" lon="5.80497">
        <ele>1296</ele>
        <time>2011-02-19T11:35:15Z</time>
      </trkpt>
      <trkpt lat="45.50194" lon="5.80482">
        <ele>1298</ele>
        <time>2011-02-19T11:35:35Z</time>
      </trkpt>
      <trkpt lat="45.50193" lon="5.80482">
        <ele>1298</ele>
        <time>2011-02-19T11:36:03Z</time>
      </trkpt>
      <trkpt lat="45.50198" lon="5.80466">
        <ele>1301</ele>
        <time>2011-02-19T11:36:30Z</time>
      </trkpt>
      <trkpt lat="45.50206" lon="5.80445">
        <ele>1304</ele>
        <time>2011-02-19T11:36:48Z</time>
      </trkpt>
      <trkpt lat="45.5021" lon="5.80424">
        <ele>1307</ele>
        <time>2011-02-19T11:37:06Z</time>
      </trkpt>
      <trkpt lat="45.50214" lon="5.80401">
        <ele>1310</ele>
        <time>2011-02-19T11:37:23Z</time>
      </trkpt>
      <trkpt lat="45.50214" lon="5.80392">
        <ele>1312</ele>
        <time>2011-02-19T11:37:30Z</time>
      </trkpt>
      <trkpt lat="45.50209" lon="5.80378">
        <ele>1314</ele>
        <time>2011-02-19T11:37:46Z</time>
      </trkpt>
      <trkpt lat="45.50207" lon="5.80366">
        <ele>1316</ele>
        <time>2011-02-19T11:37:58Z</time>
      </trkpt>
      <trkpt lat="45.502" lon="5.80347">
        <ele>1318</ele>
        <time>2011-02-19T11:38:16Z</time>
      </trkpt>
      <trkpt lat="45.50191" lon="5.80347">
        <ele>1318</ele>
        <time>2011-02-19T11:38:36Z</time>
      </trkpt>
      <trkpt lat="45.50183" lon="5.80346">
        <ele>1318</ele>
        <time>2011-02-19T11:38:47Z</time>
      </trkpt>
      <trkpt lat="45.50179" lon="5.80339">
        <ele>1318</ele>
        <time>2011-02-19T11:39:09Z</time>
      </trkpt>
      <trkpt lat="45.50177" lon="5.80341">
        <ele>1318</ele>
        <time>2011-02-19T11:39:29Z</time>
      </trkpt>
      <trkpt lat="45.50177" lon="5.80342">
        <ele>1318</ele>
        <time>2011-02-19T11:40:55Z</time>
      </trkpt>
      <trkpt lat="45.50177" lon="5.80342">
        <ele>1318</ele>
        <time>2011-02-19T11:41:37Z</time>
      </trkpt>
      <trkpt lat="45.50154" lon="5.80353">
        <ele>1318</ele>
        <time>2011-02-19T11:41:53Z</time>
      </trkpt>
      <trkpt lat="45.50148" lon="5.80353">
        <ele>1318</ele>
        <time>2011-02-19T11:41:57Z</time>
      </trkpt>
      <trkpt lat="45.50142" lon="5.80351">
        <ele>1319</ele>
        <time>2011-02-19T11:42:04Z</time>
      </trkpt>
      <trkpt lat="45.50136" lon="5.80354">
        <ele>1319</ele>
        <time>2011-02-19T11:42:09Z</time>
      </trkpt>
      <trkpt lat="45.50129" lon="5.80354">
        <ele>1319</ele>
        <time>2011-02-19T11:42:14Z</time>
      </trkpt>
      <trkpt lat="45.50123" lon="5.80364">
        <ele>1321</ele>
        <time>2011-02-19T11:42:25Z</time>
      </trkpt>
      <trkpt lat="45.50123" lon="5.80365">
        <ele>1321</ele>
        <time>2011-02-19T11:42:54Z</time>
      </trkpt>
      <trkpt lat="45.50123" lon="5.80365">
        <ele>1321</ele>
        <time>2011-02-19T11:43:01Z</time>
      </trkpt>
      <trkpt lat="45.50123" lon="5.80365">
        <ele>1320</ele>
        <time>2011-02-19T11:43:49Z</time>
      </trkpt>
      <trkpt lat="45.50123" lon="5.80365">
        <ele>1321</ele>
        <time>2011-02-19T11:47:06Z</time>
      </trkpt>
    </trkseg>
  </trk>
</gpx>